Time,TemperatureF,DewpointF,PressureIn,WindDirection,WindDirectionDegrees,WindSpeedMPH,WindSpeedGustMPH,Humidity,HourlyPrecipIn,Conditions,Clouds,dailyrainin,SolarRadiationWatts/m^2,SoftwareType,DateUTC
2013-09-02 00:01:00,71.6,68.8,29.84,NW,305,3.0,3.0,91,0.00,,,0.00,0,Wunderground v.1.15,2013-09-02 04:01:00,
2013-09-02 00:03:00,71.6,68.8,29.84,WNW,302,3.0,3.0,91,0.00,,,0.00,0,Wunderground v.1.15,2013-09-02 04:03:00,
2013-09-02 00:05:00,71.6,68.8,29.84,ENE,57,2.0,3.0,91,0.00,,,0.00,0,Wunderground v.1.15,2013-09-02 04:05:00,
2013-09-02 00:06:00,71.6,68.8,29.84,SSE,163,2.0,3.0,91,0.00,,,0.00,0,Wunderground v.1.15,2013-09-02 04:06:00,
2013-09-02 00:08:00,71.6,68.8,29.84,South,188,1.0,3.0,91,0.00,,,0.00,0,Wunderground v.1.15,2013-09-02 04:08:00,
2013-09-02 00:12:00,71.3,68.5,29.83,SW,221,1.0,2.0,91,0.00,,,0.00,0,Wunderground v.1.15,2013-09-02 04:12:00,
2013-09-02 00:14:00,71.3,68.9,29.83,SSW,207,1.0,2.0,92,0.00,,,0.00,0,Wunderground v.1.15,2013-09-02 04:14:00,
2013-09-02 00:16:00,71.2,68.8,29.83,SSW,207,1.0,2.0,92,0.00,,,0.00,0,Wunderground v.1.15,2013-09-02 04:16:00,
2013-09-02 00:18:00,71.2,68.8,29.83,SSW,207,1.0,2.0,92,0.00,,,0.00,0,Wunderground v.1.15,2013-09-02 04:18:00,
2013-09-02 00:19:00,71.1,68.7,29.83,South,190,1.0,3.0,92,0.00,,,0.00,0,Wunderground v.1.15,2013-09-02 04:19:00,
2013-09-02 00:20:00,71.0,68.6,29.84,South,190,1.0,2.0,92,0.00,,,0.00,0,Wunderground v.1.15,2013-09-02 04:20:00,
2013-09-02 00:24:00,70.8,68.4,29.84,South,182,2.0,2.0,92,0.00,,,0.00,0,Wunderground v.1.15,2013-09-02 04:24:00,
2013-09-02 00:27:00,70.6,68.2,29.84,South,184,2.0,2.0,92,0.00,,,0.00,0,Wunderground v.1.15,2013-09-02 04:27:00,
2013-09-02 00:30:00,70.5,68.1,29.84,WSW,252,2.0,2.0,92,0.00,,,0.00,0,Wunderground v.1.15,2013-09-02 04:30:00,
2013-09-02 00:31:00,70.5,68.1,29.84,WSW,252,2.0,2.0,92,0.00,,,0.00,0,Wunderground v.1.15,2013-09-02 04:31:00,
2013-09-02 00:32:00,70.5,68.1,29.84,SSW,205,2.0,3.0,92,0.00,,,0.00,0,Wunderground v.1.15,2013-09-02 04:32:00,
2013-09-02 00:34:00,70.5,68.1,29.84,WNW,300,2.0,3.0,92,0.00,,,0.00,0,Wunderground v.1.15,2013-09-02 04:34:00,
2013-09-02 00:36:00,70.5,68.1,29.84,WNW,286,2.0,4.0,92,0.00,,,0.00,0,Wunderground v.1.15,2013-09-02 04:36:00,
2013-09-02 00:37:00,70.5,68.1,29.84,NW,315,2.0,4.0,92,0.00,,,0.00,0,Wunderground v.1.15,2013-09-02 04:37:00,
2013-09-02 00:38:00,70.6,68.2,29.84,WNW,302,2.0,4.0,92,0.00,,,0.00,0,Wunderground v.1.15,2013-09-02 04:38:00,
2013-09-02 00:40:00,70.6,68.2,29.84,NW,306,2.0,2.0,92,0.00,,,0.00,0,Wunderground v.1.15,2013-09-02 04:40:00,
2013-09-02 00:42:00,70.6,68.2,29.84,WNW,302,2.0,2.0,92,0.00,,,0.01,0,Wunderground v.1.15,2013-09-02 04:42:00,
2013-09-02 00:45:00,70.8,68.4,29.84,North,355,2.0,2.0,92,0.29,,,0.02,0,Wunderground v.1.15,2013-09-02 04:45:00,
2013-09-02 00:46:00,70.8,68.7,29.84,NNW,335,2.0,2.0,93,0.22,,,0.02,0,Wunderground v.1.15,2013-09-02 04:46:00,
2013-09-02 00:47:00,70.9,68.8,29.84,WNW,303,1.0,2.0,93,0.21,,,0.03,0,Wunderground v.1.15,2013-09-02 04:47:00,
2013-09-02 00:52:00,71.1,69.3,29.85,NW,311,2.0,3.0,94,0.10,,,0.03,0,Wunderground v.1.15,2013-09-02 04:52:00,
2013-09-02 00:53:00,71.1,69.3,29.85,NW,312,2.0,3.0,94,0.08,,,0.03,0,Wunderground v.1.15,2013-09-02 04:53:00,
2013-09-02 00:55:00,71.1,69.3,29.84,NNW,328,2.0,3.0,94,0.07,,,0.03,0,Wunderground v.1.15,2013-09-02 04:55:00,
2013-09-02 00:56:00,71.1,69.3,29.84,WSW,241,3.0,4.0,94,0.06,,,0.03,0,Wunderground v.1.15,2013-09-02 04:56:00,
2013-09-02 00:59:00,71.1,69.3,29.84,ENE,57,3.0,5.0,94,0.05,,,0.03,0,Wunderground v.1.15,2013-09-02 04:59:00,
2013-09-02 01:01:00,71.0,69.2,29.84,ESE,107,3.0,3.0,94,0.04,,,0.03,0,Wunderground v.1.15,2013-09-02 05:01:00,
2013-09-02 01:03:00,71.0,69.2,29.83,SW,219,3.0,6.0,94,0.04,,,0.03,0,Wunderground v.1.15,2013-09-02 05:03:00,
2013-09-02 01:04:00,71.0,69.2,29.84,WNW,290,3.0,6.0,94,0.00,,,0.03,0,Wunderground v.1.15,2013-09-02 05:04:00,
2013-09-02 01:05:00,71.0,69.2,29.83,NE,35,3.0,6.0,94,0.00,,,0.03,0,Wunderground v.1.15,2013-09-02 05:05:00,
2013-09-02 01:06:00,71.0,69.2,29.83,North,9,3.0,6.0,94,0.00,,,0.03,0,Wunderground v.1.15,2013-09-02 05:06:00,
2013-09-02 01:09:00,70.9,69.1,29.83,NNW,343,3.0,4.0,94,0.00,,,0.03,0,Wunderground v.1.15,2013-09-02 05:09:00,
2013-09-02 01:11:00,70.8,68.7,29.83,West,270,3.0,4.0,93,0.00,,,0.03,0,Wunderground v.1.15,2013-09-02 05:11:00,
2013-09-02 01:12:00,70.8,68.7,29.83,SW,228,3.0,4.0,93,0.00,,,0.03,0,Wunderground v.1.15,2013-09-02 05:12:00,
2013-09-02 01:13:00,70.8,68.7,29.83,WNW,301,3.0,4.0,93,0.00,,,0.03,0,Wunderground v.1.15,2013-09-02 05:13:00,
2013-09-02 01:14:00,70.8,68.7,29.83,West,263,3.0,4.0,93,0.00,,,0.03,0,Wunderground v.1.15,2013-09-02 05:14:00,
2013-09-02 01:16:00,70.8,68.7,29.83,ENE,76,3.0,4.0,93,0.00,,,0.03,0,Wunderground v.1.15,2013-09-02 05:16:00,
2013-09-02 01:17:00,70.8,68.7,29.83,ESE,104,2.0,4.0,93,0.00,,,0.03,0,Wunderground v.1.15,2013-09-02 05:17:00,
2013-09-02 01:22:00,70.7,68.6,29.84,SSW,192,2.0,5.0,93,0.00,,,0.03,0,Wunderground v.1.15,2013-09-02 05:22:00,
2013-09-02 01:23:00,70.7,68.6,29.84,SSW,210,2.0,5.0,93,0.00,,,0.03,0,Wunderground v.1.15,2013-09-02 05:23:00,
2013-09-02 01:27:00,70.6,68.8,29.84,NNE,23,2.0,5.0,94,0.00,,,0.03,0,Wunderground v.1.15,2013-09-02 05:27:00,
2013-09-02 01:29:00,70.6,68.8,29.84,SSW,208,2.0,5.0,94,0.00,,,0.03,0,Wunderground v.1.15,2013-09-02 05:29:00,
2013-09-02 01:30:00,70.6,68.5,29.84,SSW,204,2.0,2.0,93,0.00,,,0.03,0,Wunderground v.1.15,2013-09-02 05:30:00,
2013-09-02 01:33:00,70.5,68.7,29.84,NNE,13,2.0,2.0,94,0.00,,,0.03,0,Wunderground v.1.15,2013-09-02 05:33:00,
2013-09-02 01:39:00,70.5,68.4,29.83,NW,311,2.0,2.0,93,0.00,,,0.03,0,Wunderground v.1.15,2013-09-02 05:39:00,
2013-09-02 01:40:00,70.4,68.3,29.83,NW,310,1.0,1.0,93,0.00,,,0.03,0,Wunderground v.1.15,2013-09-02 05:40:00,
2013-09-02 01:45:00,70.4,68.3,29.83,South,179,1.0,2.0,93,0.00,,,0.03,0,Wunderground v.1.15,2013-09-02 05:45:00,
2013-09-02 01:46:00,70.4,68.6,29.83,South,185,1.0,2.0,94,0.00,,,0.03,0,Wunderground v.1.15,2013-09-02 05:46:00,
2013-09-02 01:47:00,70.3,68.5,29.83,South,186,1.0,4.0,94,0.00,,,0.03,0,Wunderground v.1.15,2013-09-02 05:47:00,
2013-09-02 01:48:00,70.3,68.5,29.83,SSW,193,2.0,4.0,94,0.00,,,0.03,0,Wunderground v.1.15,2013-09-02 05:48:00,
2013-09-02 01:51:00,70.2,68.4,29.83,SSW,205,2.0,2.0,94,0.00,,,0.03,0,Wunderground v.1.15,2013-09-02 05:51:00,
2013-09-02 01:52:00,70.2,68.4,29.83,SSW,199,2.0,2.0,94,0.00,,,0.03,0,Wunderground v.1.15,2013-09-02 05:52:00,
2013-09-02 01:54:00,70.1,68.3,29.83,SSW,199,2.0,2.0,94,0.00,,,0.03,0,Wunderground v.1.15,2013-09-02 05:54:00,
2013-09-02 01:57:00,70.1,68.3,29.83,South,187,2.0,2.0,94,0.00,,,0.03,0,Wunderground v.1.15,2013-09-02 05:57:00,
2013-09-02 01:59:00,70.1,68.3,29.82,South,187,2.0,2.0,94,0.00,,,0.03,0,Wunderground v.1.15,2013-09-02 05:59:00,
2013-09-02 02:00:00,70.1,68.3,29.82,South,187,2.0,2.0,94,0.00,,,0.03,0,Wunderground v.1.15,2013-09-02 06:00:00,
2013-09-02 02:02:00,70.1,68.3,29.82,South,187,1.0,3.0,94,0.00,,,0.03,0,Wunderground v.1.15,2013-09-02 06:02:00,
2013-09-02 02:03:00,70.0,68.2,29.82,South,187,1.0,3.0,94,0.00,,,0.03,0,Wunderground v.1.15,2013-09-02 06:03:00,
2013-09-02 02:06:00,70.0,68.2,29.82,South,187,1.0,3.0,94,0.00,,,0.03,0,Wunderground v.1.15,2013-09-02 06:06:00,
2013-09-02 02:07:00,70.0,68.2,29.82,South,187,1.0,3.0,94,0.00,,,0.03,0,Wunderground v.1.15,2013-09-02 06:07:00,
2013-09-02 02:10:00,70.0,68.2,29.82,South,187,1.0,1.0,94,0.00,,,0.03,0,Wunderground v.1.15,2013-09-02 06:10:00,
2013-09-02 02:11:00,69.9,68.1,29.82,South,187,1.0,1.0,94,0.00,,,0.03,0,Wunderground v.1.15,2013-09-02 06:11:00,
2013-09-02 02:14:00,69.9,68.1,29.82,South,187,1.0,1.0,94,0.00,,,0.03,0,Wunderground v.1.15,2013-09-02 06:14:00,
2013-09-02 02:16:00,69.9,68.1,29.82,South,187,1.0,2.0,94,0.00,,,0.03,0,Wunderground v.1.15,2013-09-02 06:16:00,
2013-09-02 02:19:00,69.9,68.1,29.82,SW,218,1.0,5.0,94,0.00,,,0.03,0,Wunderground v.1.15,2013-09-02 06:19:00,
2013-09-02 02:20:00,70.0,68.2,29.82,SSW,202,2.0,2.0,94,0.00,,,0.03,0,Wunderground v.1.15,2013-09-02 06:20:00,
2013-09-02 02:21:00,70.0,68.2,29.82,SSW,201,2.0,2.0,94,0.00,,,0.03,0,Wunderground v.1.15,2013-09-02 06:21:00,
2013-09-02 02:22:00,70.0,68.2,29.82,SSW,195,2.0,2.0,94,0.00,,,0.03,0,Wunderground v.1.15,2013-09-02 06:22:00,
2013-09-02 02:23:00,70.0,68.2,29.82,SSW,195,2.0,2.0,94,0.00,,,0.03,0,Wunderground v.1.15,2013-09-02 06:23:00,
2013-09-02 02:27:00,70.1,68.3,29.82,SSW,195,2.0,2.0,94,0.00,,,0.03,0,Wunderground v.1.15,2013-09-02 06:27:00,
2013-09-02 02:29:00,70.0,68.2,29.82,SSW,195,1.0,2.0,94,0.00,,,0.03,0,Wunderground v.1.15,2013-09-02 06:29:00,
2013-09-02 02:32:00,70.1,68.3,29.82,WSW,256,1.0,1.0,94,0.00,,,0.03,0,Wunderground v.1.15,2013-09-02 06:32:00,
2013-09-02 02:34:00,70.1,68.3,29.82,NW,324,0.0,1.0,94,0.00,,,0.03,0,Wunderground v.1.15,2013-09-02 06:34:00,
2013-09-02 02:35:00,70.1,68.3,29.82,NW,321,0.0,1.0,94,0.00,,,0.03,0,Wunderground v.1.15,2013-09-02 06:35:00,
2013-09-02 02:37:00,70.1,68.3,29.82,NW,315,0.0,2.0,94,0.00,,,0.03,0,Wunderground v.1.15,2013-09-02 06:37:00,
2013-09-02 02:38:00,70.1,68.3,29.82,NW,305,1.0,2.0,94,0.00,,,0.03,0,Wunderground v.1.15,2013-09-02 06:38:00,
2013-09-02 02:41:00,70.1,68.3,29.82,SSW,204,1.0,4.0,94,0.00,,,0.03,0,Wunderground v.1.15,2013-09-02 06:41:00,
2013-09-02 02:42:00,70.1,68.3,29.82,SW,220,1.0,4.0,94,0.00,,,0.03,0,Wunderground v.1.15,2013-09-02 06:42:00,
2013-09-02 02:43:00,70.1,68.0,29.81,SW,224,1.0,4.0,93,0.00,,,0.03,0,Wunderground v.1.15,2013-09-02 06:43:00,
2013-09-02 02:47:00,70.2,68.1,29.82,SSW,203,2.0,4.0,93,0.00,,,0.03,0,Wunderground v.1.15,2013-09-02 06:47:00,
2013-09-02 02:48:00,70.2,68.1,29.82,SSW,207,2.0,4.0,93,0.00,,,0.03,0,Wunderground v.1.15,2013-09-02 06:48:00,
2013-09-02 02:49:00,70.2,68.1,29.81,SSW,197,2.0,4.0,93,0.00,,,0.03,0,Wunderground v.1.15,2013-09-02 06:49:00,
2013-09-02 02:54:00,70.3,68.2,29.81,NW,305,2.0,4.0,93,0.00,,,0.03,0,Wunderground v.1.15,2013-09-02 06:54:00,
2013-09-02 02:55:00,70.3,68.2,29.81,North,355,2.0,4.0,93,0.00,,,0.03,0,Wunderground v.1.15,2013-09-02 06:55:00,
2013-09-02 02:56:00,70.3,68.2,29.81,North,355,2.0,4.0,93,0.00,,,0.03,0,Wunderground v.1.15,2013-09-02 06:56:00,
2013-09-02 02:57:00,70.3,68.2,29.81,SW,233,1.0,4.0,93,0.00,,,0.03,0,Wunderground v.1.15,2013-09-02 06:57:00,
2013-09-02 02:59:00,70.2,68.1,29.81,SW,227,1.0,4.0,93,0.00,,,0.03,0,Wunderground v.1.15,2013-09-02 06:59:00,
2013-09-02 03:03:00,70.2,68.1,29.81,WSW,238,1.0,2.0,93,0.00,,,0.03,0,Wunderground v.1.15,2013-09-02 07:03:00,
2013-09-02 03:05:00,70.2,67.8,29.81,SW,219,1.0,2.0,92,0.00,,,0.03,0,Wunderground v.1.15,2013-09-02 07:05:00,
2013-09-02 03:09:00,70.2,68.1,29.80,WNW,286,1.0,2.0,93,0.00,,,0.03,0,Wunderground v.1.15,2013-09-02 07:09:00,
2013-09-02 03:11:00,70.2,68.1,29.80,NW,320,1.0,1.0,93,0.00,,,0.03,0,Wunderground v.1.15,2013-09-02 07:11:00,
2013-09-02 03:12:00,70.1,68.0,29.80,NW,319,1.0,1.0,93,0.00,,,0.03,0,Wunderground v.1.15,2013-09-02 07:12:00,
2013-09-02 03:16:00,70.1,68.0,29.80,NW,319,1.0,1.0,93,0.00,,,0.03,0,Wunderground v.1.15,2013-09-02 07:16:00,
2013-09-02 03:17:00,70.1,68.0,29.80,NNW,332,1.0,1.0,93,0.00,,,0.03,0,Wunderground v.1.15,2013-09-02 07:17:00,
2013-09-02 03:19:00,70.0,67.9,29.80,NNW,332,0.0,1.0,93,0.00,,,0.03,0,Wunderground v.1.15,2013-09-02 07:19:00,
2013-09-02 03:22:00,70.0,67.9,29.80,SSW,206,0.0,3.0,93,0.00,,,0.03,0,Wunderground v.1.15,2013-09-02 07:22:00,
2013-09-02 03:24:00,70.0,67.9,29.80,SSW,206,1.0,3.0,93,0.00,,,0.03,0,Wunderground v.1.15,2013-09-02 07:24:00,
2013-09-02 03:29:00,70.0,67.9,29.80,SSW,206,1.0,3.0,93,0.00,,,0.03,0,Wunderground v.1.15,2013-09-02 07:29:00,
2013-09-02 03:31:00,69.9,67.8,29.81,SSW,206,1.0,1.0,93,0.00,,,0.03,0,Wunderground v.1.15,2013-09-02 07:31:00,
2013-09-02 03:33:00,69.9,67.8,29.81,SSW,206,0.0,1.0,93,0.00,,,0.03,0,Wunderground v.1.15,2013-09-02 07:33:00,
2013-09-02 03:36:00,69.9,67.8,29.81,SSW,206,0.0,1.0,93,0.00,,,0.03,0,Wunderground v.1.15,2013-09-02 07:36:00,
2013-09-02 03:37:00,69.8,67.7,29.81,SSW,206,0.0,1.0,93,0.00,,,0.03,0,Wunderground v.1.15,2013-09-02 07:37:00,
2013-09-02 03:40:00,69.8,67.7,29.80,SSW,206,0.0,0.0,93,0.00,,,0.03,0,Wunderground v.1.15,2013-09-02 07:40:00,
2013-09-02 03:43:00,69.8,67.7,29.80,SSW,206,0.0,1.0,93,0.00,,,0.03,0,Wunderground v.1.15,2013-09-02 07:43:00,
2013-09-02 03:44:00,69.8,67.7,29.81,SSW,206,0.0,1.0,93,0.00,,,0.03,0,Wunderground v.1.15,2013-09-02 07:44:00,
2013-09-02 03:45:00,69.7,67.9,29.81,SSW,206,0.0,1.0,94,0.00,,,0.03,0,Wunderground v.1.15,2013-09-02 07:45:00,
2013-09-02 03:46:00,69.7,67.9,29.81,SSW,206,0.0,1.0,94,0.00,,,0.03,0,Wunderground v.1.15,2013-09-02 07:46:00,
2013-09-02 03:47:00,69.7,67.9,29.81,SSW,206,0.0,1.0,94,0.00,,,0.03,0,Wunderground v.1.15,2013-09-02 07:47:00,
2013-09-02 03:50:00,69.7,67.9,29.81,SSW,206,0.0,0.0,94,0.00,,,0.03,0,Wunderground v.1.15,2013-09-02 07:50:00,
2013-09-02 03:52:00,69.6,67.8,29.81,SSW,206,0.0,1.0,94,0.00,,,0.03,0,Wunderground v.1.15,2013-09-02 07:52:00,
2013-09-02 03:53:00,69.6,67.8,29.81,SSW,206,1.0,1.0,94,0.00,,,0.03,0,Wunderground v.1.15,2013-09-02 07:53:00,
2013-09-02 03:55:00,69.6,67.8,29.81,SSW,206,1.0,1.0,94,0.00,,,0.03,0,Wunderground v.1.15,2013-09-02 07:55:00,
2013-09-02 03:58:00,69.5,67.7,29.81,SSW,206,1.0,1.0,94,0.00,,,0.03,0,Wunderground v.1.15,2013-09-02 07:58:00,
2013-09-02 04:00:00,69.5,68.0,29.81,SSW,206,1.0,1.0,95,0.00,,,0.03,0,Wunderground v.1.15,2013-09-02 08:00:00,
2013-09-02 04:03:00,69.5,68.0,29.81,SSW,206,1.0,1.0,95,0.00,,,0.03,0,Wunderground v.1.15,2013-09-02 08:03:00,
2013-09-02 04:08:00,69.5,68.0,29.81,SSW,206,0.0,1.0,95,0.00,,,0.03,0,Wunderground v.1.15,2013-09-02 08:08:00,
2013-09-02 04:09:00,69.5,68.0,29.81,SSW,206,0.0,1.0,95,0.00,,,0.03,0,Wunderground v.1.15,2013-09-02 08:09:00,
2013-09-02 04:11:00,69.5,68.0,29.81,SSW,206,0.0,1.0,95,0.00,,,0.03,0,Wunderground v.1.15,2013-09-02 08:11:00,
2013-09-02 04:16:00,69.4,67.9,29.81,SSW,206,1.0,1.0,95,0.00,,,0.03,0,Wunderground v.1.15,2013-09-02 08:16:00,
2013-09-02 04:17:00,69.4,67.9,29.81,SSW,206,1.0,1.0,95,0.00,,,0.03,0,Wunderground v.1.15,2013-09-02 08:17:00,
2013-09-02 04:18:00,69.4,67.9,29.81,SSW,206,1.0,1.0,95,0.00,,,0.03,0,Wunderground v.1.15,2013-09-02 08:18:00,
2013-09-02 04:19:00,69.4,67.9,29.81,SSW,206,1.0,1.0,95,0.00,,,0.03,0,Wunderground v.1.15,2013-09-02 08:19:00,
2013-09-02 04:23:00,69.3,67.8,29.80,SSW,206,0.0,1.0,95,0.00,,,0.03,0,Wunderground v.1.15,2013-09-02 08:23:00,
2013-09-02 04:24:00,69.3,67.8,29.81,SSW,206,0.0,1.0,95,0.00,,,0.03,0,Wunderground v.1.15,2013-09-02 08:24:00,
2013-09-02 04:26:00,69.3,67.8,29.81,SSW,206,0.0,1.0,95,0.00,,,0.03,0,Wunderground v.1.15,2013-09-02 08:26:00,
2013-09-02 04:28:00,69.2,67.7,29.80,SSW,206,0.0,1.0,95,0.00,,,0.03,0,Wunderground v.1.15,2013-09-02 08:28:00,
2013-09-02 04:29:00,69.2,67.7,29.80,SSW,206,0.0,1.0,95,0.00,,,0.03,0,Wunderground v.1.15,2013-09-02 08:29:00,
2013-09-02 04:31:00,69.2,67.7,29.80,SSW,206,0.0,0.0,95,0.00,,,0.03,0,Wunderground v.1.15,2013-09-02 08:31:00,
2013-09-02 04:33:00,69.2,68.0,29.80,SSW,206,0.0,0.0,96,0.00,,,0.03,0,Wunderground v.1.15,2013-09-02 08:33:00,
2013-09-02 04:35:00,69.1,67.9,29.80,SSW,206,0.0,0.0,96,0.00,,,0.03,0,Wunderground v.1.15,2013-09-02 08:35:00,
2013-09-02 04:36:00,69.2,68.0,29.80,SSW,206,0.0,0.0,96,0.00,,,0.03,0,Wunderground v.1.15,2013-09-02 08:36:00,
2013-09-02 04:38:00,69.1,67.9,29.80,SSW,206,0.0,0.0,96,0.00,,,0.03,0,Wunderground v.1.15,2013-09-02 08:38:00,
2013-09-02 04:43:00,69.0,67.8,29.80,SSW,206,0.0,0.0,96,0.00,,,0.03,0,Wunderground v.1.15,2013-09-02 08:43:00,
2013-09-02 04:44:00,69.0,67.8,29.80,SSW,206,0.0,1.0,96,0.00,,,0.03,0,Wunderground v.1.15,2013-09-02 08:44:00,
2013-09-02 04:45:00,69.0,67.5,29.80,SSW,206,0.0,1.0,95,0.00,,,0.03,0,Wunderground v.1.15,2013-09-02 08:45:00,
2013-09-02 04:46:00,69.0,67.5,29.80,SSW,206,0.0,1.0,95,0.00,,,0.03,0,Wunderground v.1.15,2013-09-02 08:46:00,
2013-09-02 04:49:00,69.0,67.5,29.81,SSW,206,0.0,1.0,95,0.00,,,0.03,0,Wunderground v.1.15,2013-09-02 08:49:00,
2013-09-02 04:52:00,68.9,67.4,29.81,SSW,206,0.0,1.0,95,0.00,,,0.03,0,Wunderground v.1.15,2013-09-02 08:52:00,
2013-09-02 04:53:00,68.9,67.4,29.81,SSW,206,0.0,1.0,95,0.00,,,0.03,0,Wunderground v.1.15,2013-09-02 08:53:00,
2013-09-02 04:56:00,68.9,67.7,29.81,SSW,206,0.0,1.0,96,0.00,,,0.03,0,Wunderground v.1.15,2013-09-02 08:56:00,
2013-09-02 04:57:00,68.9,67.7,29.81,SSW,206,0.0,1.0,96,0.00,,,0.03,0,Wunderground v.1.15,2013-09-02 08:57:00,
2013-09-02 04:59:00,68.9,67.4,29.81,SSW,206,0.0,1.0,95,0.00,,,0.03,0,Wunderground v.1.15,2013-09-02 08:59:00,
2013-09-02 05:00:00,68.9,67.4,29.81,SSW,206,0.0,0.0,95,0.00,,,0.03,0,Wunderground v.1.15,2013-09-02 09:00:00,
2013-09-02 05:03:00,68.8,67.3,29.81,SSW,206,0.0,1.0,95,0.00,,,0.03,0,Wunderground v.1.15,2013-09-02 09:03:00,
2013-09-02 05:04:00,68.8,67.3,29.81,SSW,206,0.0,1.0,95,0.00,,,0.03,0,Wunderground v.1.15,2013-09-02 09:04:00,
2013-09-02 05:06:00,68.7,67.2,29.81,SSW,206,0.0,1.0,95,0.00,,,0.03,0,Wunderground v.1.15,2013-09-02 09:06:00,
2013-09-02 05:09:00,68.6,67.1,29.81,NW,311,0.0,2.0,95,0.00,,,0.03,0,Wunderground v.1.15,2013-09-02 09:09:00,
2013-09-02 05:11:00,68.6,67.1,29.81,NW,311,0.0,1.0,95,0.00,,,0.03,0,Wunderground v.1.15,2013-09-02 09:11:00,
2013-09-02 05:12:00,68.5,67.0,29.81,NW,311,0.0,1.0,95,0.00,,,0.03,0,Wunderground v.1.15,2013-09-02 09:12:00,
2013-09-02 05:13:00,68.5,67.0,29.81,NW,311,0.0,1.0,95,0.00,,,0.03,0,Wunderground v.1.15,2013-09-02 09:13:00,
2013-09-02 05:16:00,68.5,67.0,29.81,NW,311,0.0,1.0,95,0.00,,,0.03,0,Wunderground v.1.15,2013-09-02 09:16:00,
2013-09-02 05:17:00,68.5,67.0,29.81,NW,311,0.0,1.0,95,0.00,,,0.03,0,Wunderground v.1.15,2013-09-02 09:17:00,
2013-09-02 05:18:00,68.4,66.9,29.81,NW,311,0.0,1.0,95,0.00,,,0.03,0,Wunderground v.1.15,2013-09-02 09:18:00,
2013-09-02 05:21:00,68.4,66.9,29.81,NW,311,0.0,0.0,95,0.00,,,0.03,0,Wunderground v.1.15,2013-09-02 09:21:00,
2013-09-02 05:23:00,68.3,67.1,29.81,NW,311,0.0,0.0,96,0.00,,,0.03,0,Wunderground v.1.15,2013-09-02 09:23:00,
2013-09-02 05:25:00,68.3,67.1,29.81,NW,311,0.0,0.0,96,0.00,,,0.03,0,Wunderground v.1.15,2013-09-02 09:25:00,
2013-09-02 05:26:00,68.3,67.1,29.81,NW,311,0.0,1.0,96,0.00,,,0.03,0,Wunderground v.1.15,2013-09-02 09:26:00,
2013-09-02 05:29:00,68.3,67.1,29.81,NW,311,0.0,1.0,96,0.00,,,0.03,0,Wunderground v.1.15,2013-09-02 09:29:00,
2013-09-02 05:30:00,68.3,67.1,29.81,NW,311,0.0,0.0,96,0.00,,,0.03,0,Wunderground v.1.15,2013-09-02 09:30:00,
2013-09-02 05:32:00,68.3,67.1,29.81,NW,311,0.0,1.0,96,0.00,,,0.03,0,Wunderground v.1.15,2013-09-02 09:32:00,
2013-09-02 05:36:00,68.2,67.0,29.81,NW,311,1.0,2.0,96,0.00,,,0.03,0,Wunderground v.1.15,2013-09-02 09:36:00,
2013-09-02 05:37:00,68.2,66.7,29.81,NW,311,0.0,2.0,95,0.00,,,0.03,0,Wunderground v.1.15,2013-09-02 09:37:00,
2013-09-02 05:38:00,68.2,66.7,29.81,NW,311,0.0,2.0,95,0.00,,,0.03,0,Wunderground v.1.15,2013-09-02 09:38:00,
2013-09-02 05:40:00,68.1,66.6,29.81,NW,311,0.0,0.0,95,0.00,,,0.03,0,Wunderground v.1.15,2013-09-02 09:40:00,
2013-09-02 05:43:00,68.1,66.6,29.82,NW,311,0.0,0.0,95,0.00,,,0.03,0,Wunderground v.1.15,2013-09-02 09:43:00,
2013-09-02 05:44:00,68.1,66.9,29.82,NW,311,0.0,0.0,96,0.00,,,0.03,0,Wunderground v.1.15,2013-09-02 09:44:00,
2013-09-02 05:46:00,68.1,66.9,29.82,NW,311,0.0,1.0,96,0.00,,,0.03,0,Wunderground v.1.15,2013-09-02 09:46:00,
2013-09-02 05:47:00,68.1,66.9,29.82,NW,311,0.0,1.0,96,0.00,,,0.03,0,Wunderground v.1.15,2013-09-02 09:47:00,
2013-09-02 05:52:00,68.1,66.9,29.82,NW,311,1.0,1.0,96,0.00,,,0.03,0,Wunderground v.1.15,2013-09-02 09:52:00,
2013-09-02 05:53:00,68.1,66.9,29.82,NW,311,1.0,1.0,96,0.00,,,0.03,0,Wunderground v.1.15,2013-09-02 09:53:00,
2013-09-02 05:54:00,68.1,66.9,29.82,NW,311,1.0,1.0,96,0.00,,,0.03,0,Wunderground v.1.15,2013-09-02 09:54:00,
2013-09-02 05:57:00,68.0,66.8,29.82,NW,311,1.0,1.0,96,0.00,,,0.03,0,Wunderground v.1.15,2013-09-02 09:57:00,
2013-09-02 06:00:00,67.9,66.7,29.83,NW,311,0.0,0.0,96,0.00,,,0.03,0,Wunderground v.1.15,2013-09-02 10:00:00,
2013-09-02 06:01:00,67.9,66.7,29.82,NW,311,0.0,0.0,96,0.00,,,0.03,0,Wunderground v.1.15,2013-09-02 10:01:00,
2013-09-02 06:02:00,67.9,66.7,29.82,NW,311,0.0,0.0,96,0.00,,,0.03,0,Wunderground v.1.15,2013-09-02 10:02:00,
2013-09-02 06:03:00,67.9,66.7,29.82,NW,311,0.0,0.0,96,0.00,,,0.03,0,Wunderground v.1.15,2013-09-02 10:03:00,
2013-09-02 06:08:00,67.9,66.7,29.82,NW,311,0.0,1.0,96,0.00,,,0.03,0,Wunderground v.1.15,2013-09-02 10:08:00,
2013-09-02 06:09:00,67.8,66.6,29.82,NW,311,0.0,1.0,96,0.00,,,0.03,0,Wunderground v.1.15,2013-09-02 10:09:00,
2013-09-02 06:10:00,67.8,66.6,29.82,NW,311,0.0,0.0,96,0.00,,,0.03,0,Wunderground v.1.15,2013-09-02 10:10:00,
2013-09-02 06:13:00,67.8,66.6,29.82,NNW,339,0.0,0.0,96,0.00,,,0.03,0,Wunderground v.1.15,2013-09-02 10:13:00,
2013-09-02 06:15:00,67.7,66.5,29.82,NNW,339,0.0,0.0,96,0.00,,,0.03,0,Wunderground v.1.15,2013-09-02 10:15:00,
2013-09-02 06:17:00,67.7,66.5,29.82,NNW,339,0.0,0.0,96,0.00,,,0.03,0,Wunderground v.1.15,2013-09-02 10:17:00,
2013-09-02 06:21:00,67.7,66.5,29.82,NNW,339,0.0,0.0,96,0.00,,,0.03,0,Wunderground v.1.15,2013-09-02 10:21:00,
2013-09-02 06:22:00,67.7,66.5,29.82,NNW,339,0.0,0.0,96,0.00,,,0.03,0,Wunderground v.1.15,2013-09-02 10:22:00,
2013-09-02 06:23:00,67.7,66.5,29.82,NNW,339,0.0,0.0,96,0.00,,,0.03,0,Wunderground v.1.15,2013-09-02 10:23:00,
2013-09-02 06:25:00,67.7,66.5,29.82,NNW,339,0.0,0.0,96,0.00,,,0.03,0,Wunderground v.1.15,2013-09-02 10:25:00,
2013-09-02 06:29:00,67.6,66.4,29.83,North,5,0.0,0.0,96,0.00,,,0.03,0,Wunderground v.1.15,2013-09-02 10:29:00,
2013-09-02 06:31:00,67.6,66.4,29.83,North,5,0.0,0.0,96,0.00,,,0.03,0,Wunderground v.1.15,2013-09-02 10:31:00,
2013-09-02 06:32:00,67.6,66.4,29.83,North,5,0.0,0.0,96,0.00,,,0.03,0,Wunderground v.1.15,2013-09-02 10:32:00,
2013-09-02 06:36:00,67.4,66.2,29.83,North,5,0.0,0.0,96,0.00,,,0.03,0,Wunderground v.1.15,2013-09-02 10:36:00,
2013-09-02 06:37:00,67.4,66.2,29.83,North,5,0.0,0.0,96,0.00,,,0.03,0,Wunderground v.1.15,2013-09-02 10:37:00,
2013-09-02 06:38:00,67.4,66.2,29.83,North,5,0.0,0.0,96,0.00,,,0.03,0,Wunderground v.1.15,2013-09-02 10:38:00,
2013-09-02 06:40:00,67.4,66.2,29.83,North,5,0.0,0.0,96,0.00,,,0.03,5,Wunderground v.1.15,2013-09-02 10:40:00,
2013-09-02 06:42:00,67.4,66.2,29.83,North,5,0.0,0.0,96,0.00,,,0.03,5,Wunderground v.1.15,2013-09-02 10:42:00,
2013-09-02 06:43:00,67.4,66.2,29.83,North,5,0.0,0.0,96,0.00,,,0.03,5,Wunderground v.1.15,2013-09-02 10:43:00,
2013-09-02 06:47:00,67.3,66.1,29.83,North,5,0.0,0.0,96,0.00,,,0.03,7,Wunderground v.1.15,2013-09-02 10:47:00,
2013-09-02 06:48:00,67.3,66.1,29.83,North,5,0.0,0.0,96,0.00,,,0.03,7,Wunderground v.1.15,2013-09-02 10:48:00,
2013-09-02 06:49:00,67.3,66.1,29.83,North,5,0.0,0.0,96,0.00,,,0.03,7,Wunderground v.1.15,2013-09-02 10:49:00,
2013-09-02 06:50:00,67.3,66.1,29.83,North,5,0.0,0.0,96,0.00,,,0.03,7,Wunderground v.1.15,2013-09-02 10:50:00,
2013-09-02 06:51:00,67.3,66.1,29.83,North,5,0.0,0.0,96,0.00,,,0.03,9,Wunderground v.1.15,2013-09-02 10:51:00,
2013-09-02 06:52:00,67.3,66.1,29.83,North,5,0.0,0.0,96,0.00,,,0.03,9,Wunderground v.1.15,2013-09-02 10:52:00,
2013-09-02 06:53:00,67.3,66.1,29.83,North,5,0.0,0.0,96,0.00,,,0.03,9,Wunderground v.1.15,2013-09-02 10:53:00,
2013-09-02 06:57:00,67.3,66.1,29.83,North,5,0.0,0.0,96,0.00,,,0.03,12,Wunderground v.1.15,2013-09-02 10:57:00,
2013-09-02 06:58:00,67.4,66.2,29.83,North,5,0.0,0.0,96,0.00,,,0.03,12,Wunderground v.1.15,2013-09-02 10:58:00,
2013-09-02 07:01:00,67.4,66.2,29.83,North,5,0.0,0.0,96,0.00,,,0.03,12,Wunderground v.1.15,2013-09-02 11:01:00,
2013-09-02 07:03:00,67.4,66.2,29.83,North,5,0.0,0.0,96,0.00,,,0.03,18,Wunderground v.1.15,2013-09-02 11:03:00,
2013-09-02 07:05:00,67.4,66.2,29.83,North,5,0.0,0.0,96,0.00,,,0.03,19,Wunderground v.1.15,2013-09-02 11:05:00,
2013-09-02 07:06:00,67.4,66.2,29.83,North,5,0.0,0.0,96,0.00,,,0.03,19,Wunderground v.1.15,2013-09-02 11:06:00,
2013-09-02 07:09:00,67.5,66.3,29.83,North,5,0.0,0.0,96,0.00,,,0.03,30,Wunderground v.1.15,2013-09-02 11:09:00,
2013-09-02 07:13:00,67.6,66.4,29.83,North,5,0.0,0.0,96,0.00,,,0.03,53,Wunderground v.1.15,2013-09-02 11:13:00,
2013-09-02 07:15:00,67.6,66.4,29.83,North,5,0.0,0.0,96,0.00,,,0.03,63,Wunderground v.1.15,2013-09-02 11:15:00,
2013-09-02 07:17:00,67.7,66.8,29.83,North,5,0.0,0.0,97,0.00,,,0.03,63,Wunderground v.1.15,2013-09-02 11:17:00,
2013-09-02 07:18:00,67.7,66.5,29.83,North,5,0.0,0.0,96,0.00,,,0.03,67,Wunderground v.1.15,2013-09-02 11:18:00,
2013-09-02 07:24:00,67.9,67.0,29.83,South,175,0.0,0.0,97,0.00,,,0.03,84,Wunderground v.1.15,2013-09-02 11:24:00,
2013-09-02 07:25:00,67.9,67.0,29.83,South,175,0.0,0.0,97,0.00,,,0.03,84,Wunderground v.1.15,2013-09-02 11:25:00,
2013-09-02 07:28:00,68.0,66.8,29.83,South,186,1.0,4.0,96,0.00,,,0.03,70,Wunderground v.1.15,2013-09-02 11:28:00,
2013-09-02 07:31:00,68.1,67.2,29.83,SSE,165,1.0,2.0,97,0.00,,,0.03,62,Wunderground v.1.15,2013-09-02 11:31:00,
2013-09-02 07:33:00,68.0,67.1,29.83,South,184,1.0,2.0,97,0.00,,,0.03,60,Wunderground v.1.15,2013-09-02 11:33:00,
2013-09-02 07:35:00,68.0,66.8,29.83,South,184,2.0,2.0,96,0.00,,,0.03,62,Wunderground v.1.15,2013-09-02 11:35:00,
2013-09-02 07:38:00,68.0,67.1,29.83,South,184,2.0,2.0,97,0.00,,,0.03,72,Wunderground v.1.15,2013-09-02 11:38:00,
2013-09-02 07:40:00,67.9,67.0,29.83,South,184,1.0,1.0,97,0.00,,,0.03,81,Wunderground v.1.15,2013-09-02 11:40:00,
2013-09-02 07:41:00,68.0,67.1,29.83,South,184,1.0,1.0,97,0.00,,,0.03,84,Wunderground v.1.15,2013-09-02 11:41:00,
2013-09-02 07:43:00,68.0,67.1,29.83,South,184,1.0,1.0,97,0.00,,,0.03,76,Wunderground v.1.15,2013-09-02 11:43:00,
2013-09-02 07:46:00,68.0,67.1,29.83,South,184,1.0,1.0,97,0.00,,,0.03,76,Wunderground v.1.15,2013-09-02 11:46:00,
2013-09-02 07:47:00,68.0,67.1,29.83,South,184,1.0,1.0,97,0.00,,,0.03,79,Wunderground v.1.15,2013-09-02 11:47:00,
2013-09-02 07:53:00,68.1,67.2,29.83,SSE,155,2.0,2.0,97,0.00,,,0.03,65,Wunderground v.1.15,2013-09-02 11:53:00,
2013-09-02 07:54:00,68.2,67.3,29.83,South,172,2.0,2.0,97,0.00,,,0.03,60,Wunderground v.1.15,2013-09-02 11:54:00,
2013-09-02 07:55:00,68.2,67.3,29.83,South,189,2.0,3.0,97,0.00,,,0.03,72,Wunderground v.1.15,2013-09-02 11:55:00,
2013-09-02 07:58:00,68.2,67.3,29.83,South,187,2.0,3.0,97,0.00,,,0.03,67,Wunderground v.1.15,2013-09-02 11:58:00,
2013-09-02 08:02:00,68.2,67.3,29.83,South,178,2.0,2.0,97,0.00,,,0.03,88,Wunderground v.1.15,2013-09-02 12:02:00,
2013-09-02 08:03:00,68.2,67.3,29.83,South,178,2.0,2.0,97,0.00,,,0.03,90,Wunderground v.1.15,2013-09-02 12:03:00,
2013-09-02 08:04:00,68.1,67.2,29.83,South,178,2.0,2.0,97,0.00,,,0.03,90,Wunderground v.1.15,2013-09-02 12:04:00,
2013-09-02 08:05:00,68.2,67.3,29.83,South,178,2.0,2.0,97,0.00,,,0.03,90,Wunderground v.1.15,2013-09-02 12:05:00,
2013-09-02 08:09:00,68.2,67.3,29.83,South,178,1.0,2.0,97,0.00,,,0.03,104,Wunderground v.1.15,2013-09-02 12:09:00,
2013-09-02 08:10:00,68.2,67.3,29.83,South,178,1.0,1.0,97,0.00,,,0.03,104,Wunderground v.1.15,2013-09-02 12:10:00,
2013-09-02 08:11:00,68.2,67.3,29.83,South,178,1.0,1.0,97,0.00,,,0.03,100,Wunderground v.1.15,2013-09-02 12:11:00,
2013-09-02 08:15:00,68.4,67.5,29.83,South,178,1.0,1.0,97,0.00,,,0.03,79,Wunderground v.1.15,2013-09-02 12:15:00,
2013-09-02 08:17:00,68.4,67.5,29.83,NNE,28,1.0,1.0,97,0.00,,,0.03,69,Wunderground v.1.15,2013-09-02 12:17:00,
2013-09-02 08:20:00,68.5,67.6,29.83,NNE,28,0.0,0.0,97,0.00,,,0.03,70,Wunderground v.1.15,2013-09-02 12:20:00,
2013-09-02 08:21:00,68.5,67.6,29.83,NNE,28,0.0,0.0,97,0.00,,,0.03,74,Wunderground v.1.15,2013-09-02 12:21:00,
2013-09-02 08:22:00,68.5,67.6,29.83,NNE,28,0.0,0.0,97,0.00,,,0.03,79,Wunderground v.1.15,2013-09-02 12:22:00,
2013-09-02 08:24:00,68.6,67.7,29.83,NNE,28,0.0,0.0,97,0.00,,,0.03,90,Wunderground v.1.15,2013-09-02 12:24:00,
2013-09-02 08:25:00,68.6,67.7,29.83,NNE,28,0.0,1.0,97,0.00,,,0.03,104,Wunderground v.1.15,2013-09-02 12:25:00,
2013-09-02 08:26:00,68.7,67.8,29.83,NNE,28,0.0,1.0,97,0.00,,,0.03,111,Wunderground v.1.15,2013-09-02 12:26:00,
2013-09-02 08:27:00,68.7,67.8,29.83,NNE,28,0.0,1.0,97,0.00,,,0.03,116,Wunderground v.1.15,2013-09-02 12:27:00,
2013-09-02 08:30:00,68.8,67.9,29.83,NNE,28,0.0,0.0,97,0.00,,,0.03,134,Wunderground v.1.15,2013-09-02 12:30:00,
2013-09-02 08:32:00,68.9,67.7,29.83,SE,136,0.0,2.0,96,0.00,,,0.03,144,Wunderground v.1.15,2013-09-02 12:32:00,
2013-09-02 08:37:00,69.0,67.8,29.83,SE,136,1.0,2.0,96,0.00,,,0.03,111,Wunderground v.1.15,2013-09-02 12:37:00,
2013-09-02 08:38:00,69.0,67.8,29.83,SE,136,0.0,2.0,96,0.00,,,0.03,109,Wunderground v.1.15,2013-09-02 12:38:00,
2013-09-02 08:39:00,69.0,67.8,29.83,SE,136,0.0,2.0,96,0.00,,,0.03,105,Wunderground v.1.15,2013-09-02 12:39:00,
2013-09-02 08:43:00,69.2,68.0,29.83,SE,136,0.0,1.0,96,0.00,,,0.03,91,Wunderground v.1.15,2013-09-02 12:43:00,
2013-09-02 08:44:00,69.2,68.0,29.83,SE,136,0.0,1.0,96,0.00,,,0.03,90,Wunderground v.1.15,2013-09-02 12:44:00,
2013-09-02 08:45:00,69.2,68.0,29.83,SE,136,1.0,1.0,96,0.00,,,0.03,90,Wunderground v.1.15,2013-09-02 12:45:00,
2013-09-02 08:46:00,69.3,68.1,29.83,SE,136,1.0,1.0,96,0.00,,,0.03,88,Wunderground v.1.15,2013-09-02 12:46:00,
2013-09-02 08:47:00,69.3,68.1,29.83,SSW,213,1.0,2.0,96,0.00,,,0.03,84,Wunderground v.1.15,2013-09-02 12:47:00,
2013-09-02 08:50:00,69.4,68.2,29.83,SSW,205,2.0,4.0,96,0.00,,,0.03,76,Wunderground v.1.15,2013-09-02 12:50:00,
2013-09-02 08:52:00,69.4,68.2,29.83,SSW,207,2.0,4.0,96,0.00,,,0.03,76,Wunderground v.1.15,2013-09-02 12:52:00,
2013-09-02 08:53:00,69.5,68.3,29.83,SSE,165,2.0,4.0,96,0.00,,,0.03,74,Wunderground v.1.15,2013-09-02 12:53:00,
2013-09-02 08:54:00,69.5,68.3,29.83,South,173,2.0,4.0,96,0.00,,,0.03,72,Wunderground v.1.15,2013-09-02 12:54:00,
2013-09-02 08:57:00,69.5,68.3,29.83,South,177,2.0,4.0,96,0.00,,,0.03,67,Wunderground v.1.15,2013-09-02 12:57:00,
2013-09-02 09:00:00,69.5,68.3,29.83,South,186,2.0,2.0,96,0.00,,,0.03,62,Wunderground v.1.15,2013-09-02 13:00:00,
2013-09-02 09:03:00,69.5,68.3,29.83,South,181,2.0,2.0,96,0.00,,,0.04,67,Wunderground v.1.15,2013-09-02 13:03:00,
2013-09-02 09:06:00,69.4,68.2,29.83,SSW,209,2.0,2.0,96,0.00,,,0.04,79,Wunderground v.1.15,2013-09-02 13:06:00,
2013-09-02 09:07:00,69.5,68.3,29.83,NW,306,2.0,2.0,96,0.13,,,0.05,79,Wunderground v.1.15,2013-09-02 13:07:00,
2013-09-02 09:09:00,69.5,68.3,29.83,NNE,19,1.0,2.0,96,0.13,,,0.05,79,Wunderground v.1.15,2013-09-02 13:09:00,
2013-09-02 09:13:00,69.6,68.4,29.83,South,180,1.0,2.0,96,0.09,,,0.05,77,Wunderground v.1.15,2013-09-02 13:13:00,
2013-09-02 09:14:00,69.6,68.7,29.83,South,187,1.0,2.0,97,0.08,,,0.05,77,Wunderground v.1.15,2013-09-02 13:14:00,
2013-09-02 09:15:00,69.6,68.4,29.83,South,187,1.0,2.0,96,0.07,,,0.05,76,Wunderground v.1.15,2013-09-02 13:15:00,
2013-09-02 09:19:00,69.5,68.3,29.83,SSW,192,1.0,2.0,96,0.05,,,0.05,79,Wunderground v.1.15,2013-09-02 13:19:00,
2013-09-02 09:21:00,69.5,68.3,29.83,SW,214,1.0,1.0,96,0.04,,,0.05,84,Wunderground v.1.15,2013-09-02 13:21:00,
2013-09-02 09:22:00,69.5,68.3,29.83,WSW,247,1.0,1.0,96,0.04,,,0.05,88,Wunderground v.1.15,2013-09-02 13:22:00,
2013-09-02 09:23:00,69.5,68.3,29.83,WSW,247,1.0,1.0,96,0.04,,,0.05,91,Wunderground v.1.15,2013-09-02 13:23:00,
2013-09-02 09:26:00,69.5,68.3,29.83,NNE,15,1.0,1.0,96,0.00,,,0.05,102,Wunderground v.1.15,2013-09-02 13:26:00,
2013-09-02 09:28:00,69.5,68.3,29.83,NE,43,1.0,1.0,96,0.00,,,0.05,105,Wunderground v.1.15,2013-09-02 13:28:00,
2013-09-02 09:30:00,69.5,68.3,29.83,SSE,168,1.0,1.0,96,0.00,,,0.05,97,Wunderground v.1.15,2013-09-02 13:30:00,
2013-09-02 09:33:00,69.5,68.3,29.84,SSW,200,1.0,2.0,96,0.00,,,0.05,93,Wunderground v.1.15,2013-09-02 13:33:00,
2013-09-02 09:36:00,69.5,68.3,29.84,South,183,1.0,2.0,96,0.00,,,0.05,98,Wunderground v.1.15,2013-09-02 13:36:00,
2013-09-02 09:37:00,69.5,68.3,29.84,South,183,1.0,2.0,96,0.00,,,0.05,100,Wunderground v.1.15,2013-09-02 13:37:00,
2013-09-02 09:42:00,69.6,68.7,29.84,SSW,209,0.0,1.0,97,0.00,,,0.05,113,Wunderground v.1.15,2013-09-02 13:42:00,
2013-09-02 09:43:00,69.6,68.4,29.84,SW,226,0.0,1.0,96,0.00,,,0.05,116,Wunderground v.1.15,2013-09-02 13:43:00,
2013-09-02 09:46:00,69.6,68.7,29.84,SSW,202,0.0,1.0,97,0.00,,,0.05,127,Wunderground v.1.15,2013-09-02 13:46:00,
2013-09-02 09:47:00,69.6,68.4,29.84,SSW,202,0.0,1.0,96,0.00,,,0.05,130,Wunderground v.1.15,2013-09-02 13:47:00,
2013-09-02 09:52:00,69.6,68.4,29.84,SSW,202,1.0,2.0,96,0.00,,,0.05,158,Wunderground v.1.15,2013-09-02 13:52:00,
2013-09-02 09:53:00,69.6,68.7,29.83,SSW,202,1.0,2.0,97,0.00,,,0.05,155,Wunderground v.1.15,2013-09-02 13:53:00,
2013-09-02 09:56:00,69.8,68.9,29.83,SSW,202,1.0,2.0,97,0.00,,,0.05,141,Wunderground v.1.15,2013-09-02 13:56:00,
2013-09-02 09:57:00,69.8,68.9,29.83,SSW,202,1.0,2.0,97,0.00,,,0.05,139,Wunderground v.1.15,2013-09-02 13:57:00,
2013-09-02 09:58:00,69.8,68.9,29.83,SSW,202,1.0,2.0,97,0.00,,,0.05,135,Wunderground v.1.15,2013-09-02 13:58:00,
2013-09-02 10:00:00,69.8,68.6,29.83,South,186,1.0,1.0,96,0.00,,,0.05,125,Wunderground v.1.15,2013-09-02 14:00:00,
2013-09-02 10:01:00,69.7,68.5,29.83,South,186,1.0,1.0,96,0.00,,,0.05,121,Wunderground v.1.15,2013-09-02 14:01:00,
2013-09-02 10:05:00,69.8,68.9,29.83,SSE,162,1.0,1.0,97,0.00,,,0.05,125,Wunderground v.1.15,2013-09-02 14:05:00,
2013-09-02 10:06:00,69.8,68.6,29.83,SSE,162,1.0,1.0,96,0.00,,,0.05,127,Wunderground v.1.15,2013-09-02 14:06:00,
2013-09-02 10:07:00,69.8,68.9,29.83,SSE,162,1.0,1.0,97,0.00,,,0.05,128,Wunderground v.1.15,2013-09-02 14:07:00,
2013-09-02 10:10:00,69.9,69.0,29.83,SSE,162,1.0,1.0,97,0.00,,,0.05,135,Wunderground v.1.15,2013-09-02 14:10:00,
2013-09-02 10:11:00,69.9,69.0,29.83,SSE,162,1.0,1.0,97,0.00,,,0.05,135,Wunderground v.1.15,2013-09-02 14:11:00,
2013-09-02 10:13:00,70.1,69.2,29.83,SSE,162,0.0,1.0,97,0.00,,,0.05,135,Wunderground v.1.15,2013-09-02 14:13:00,
2013-09-02 10:17:00,70.2,69.3,29.83,SSE,162,0.0,1.0,97,0.00,,,0.05,155,Wunderground v.1.15,2013-09-02 14:17:00,
2013-09-02 10:18:00,70.2,69.3,29.83,SSE,162,0.0,1.0,97,0.00,,,0.05,169,Wunderground v.1.15,2013-09-02 14:18:00,
2013-09-02 10:20:00,70.3,69.4,29.83,SSE,162,0.0,2.0,97,0.00,,,0.05,185,Wunderground v.1.15,2013-09-02 14:20:00,
2013-09-02 10:22:00,70.3,69.1,29.83,SSE,162,1.0,2.0,96,0.00,,,0.05,178,Wunderground v.1.15,2013-09-02 14:22:00,
2013-09-02 10:24:00,70.3,69.1,29.83,SSE,162,1.0,2.0,96,0.00,,,0.05,193,Wunderground v.1.15,2013-09-02 14:24:00,
2013-09-02 10:25:00,70.4,69.2,29.83,SSE,162,1.0,2.0,96,0.00,,,0.05,202,Wunderground v.1.15,2013-09-02 14:25:00,
2013-09-02 10:26:00,70.4,69.2,29.83,SSE,162,1.0,2.0,96,0.00,,,0.05,202,Wunderground v.1.15,2013-09-02 14:26:00,
2013-09-02 10:27:00,70.4,69.2,29.83,SSE,162,1.0,2.0,96,0.00,,,0.05,206,Wunderground v.1.15,2013-09-02 14:27:00,
2013-09-02 10:30:00,70.5,69.3,29.83,SSE,162,1.0,3.0,96,0.00,,,0.05,207,Wunderground v.1.15,2013-09-02 14:30:00,
2013-09-02 10:31:00,70.5,69.3,29.83,SSE,162,1.0,3.0,96,0.00,,,0.05,207,Wunderground v.1.15,2013-09-02 14:31:00,
2013-09-02 10:32:00,70.5,69.3,29.83,SSE,162,1.0,3.0,96,0.00,,,0.05,207,Wunderground v.1.15,2013-09-02 14:32:00,
2013-09-02 10:33:00,70.6,69.4,29.83,SSE,162,1.0,3.0,96,0.00,,,0.05,213,Wunderground v.1.15,2013-09-02 14:33:00,
2013-09-02 10:34:00,70.6,69.4,29.83,SSE,162,1.0,3.0,96,0.00,,,0.05,216,Wunderground v.1.15,2013-09-02 14:34:00,
2013-09-02 10:36:00,70.7,69.5,29.83,SSE,162,1.0,3.0,96,0.00,,,0.05,227,Wunderground v.1.15,2013-09-02 14:36:00,
2013-09-02 10:37:00,70.7,69.5,29.83,SSE,162,1.0,3.0,96,0.00,,,0.05,227,Wunderground v.1.15,2013-09-02 14:37:00,
2013-09-02 10:39:00,70.7,69.2,29.83,SSE,162,2.0,3.0,95,0.00,,,0.05,216,Wunderground v.1.15,2013-09-02 14:39:00,
2013-09-02 10:44:00,70.8,69.3,29.83,SSE,162,1.0,2.0,95,0.00,,,0.05,220,Wunderground v.1.15,2013-09-02 14:44:00,
2013-09-02 10:47:00,70.9,69.4,29.83,SSE,162,1.0,2.0,95,0.00,,,0.05,223,Wunderground v.1.15,2013-09-02 14:47:00,
2013-09-02 10:49:00,71.0,69.5,29.83,SSE,162,1.0,2.0,95,0.00,,,0.05,216,Wunderground v.1.15,2013-09-02 14:49:00,
2013-09-02 10:51:00,71.1,69.9,29.83,SSE,162,1.0,1.0,96,0.00,,,0.05,229,Wunderground v.1.15,2013-09-02 14:51:00,
2013-09-02 10:54:00,71.3,70.1,29.83,SE,139,1.0,2.0,96,0.00,,,0.05,244,Wunderground v.1.15,2013-09-02 14:54:00,
2013-09-02 10:55:00,71.3,69.8,29.83,SE,139,1.0,2.0,95,0.00,,,0.05,258,Wunderground v.1.15,2013-09-02 14:55:00,
2013-09-02 10:57:00,71.3,69.8,29.83,SE,126,2.0,4.0,95,0.00,,,0.05,274,Wunderground v.1.15,2013-09-02 14:57:00,
2013-09-02 11:01:00,71.4,69.9,29.83,SE,142,2.0,2.0,95,0.00,,,0.05,302,Wunderground v.1.15,2013-09-02 15:01:00,
2013-09-02 11:03:00,71.5,70.0,29.83,SE,142,2.0,2.0,95,0.00,,,0.05,396,Wunderground v.1.15,2013-09-02 15:03:00,
2013-09-02 11:04:00,71.5,70.0,29.83,WNW,294,2.0,2.0,95,0.00,,,0.05,492,Wunderground v.1.15,2013-09-02 15:04:00,
2013-09-02 11:06:00,71.7,70.2,29.83,SSE,163,2.0,2.0,95,0.00,,,0.05,380,Wunderground v.1.15,2013-09-02 15:06:00,
2013-09-02 11:09:00,71.9,70.1,29.84,SE,127,1.0,4.0,94,0.00,,,0.05,438,Wunderground v.1.15,2013-09-02 15:09:00,
2013-09-02 11:10:00,72.0,70.2,29.83,SSE,153,1.0,1.0,94,0.00,,,0.05,438,Wunderground v.1.15,2013-09-02 15:10:00,
2013-09-02 11:12:00,72.2,70.7,29.83,SSE,153,2.0,2.0,95,0.00,,,0.05,438,Wunderground v.1.15,2013-09-02 15:12:00,
2013-09-02 11:16:00,72.8,71.0,29.83,ESE,119,2.0,2.0,94,0.00,,,0.05,438,Wunderground v.1.15,2013-09-02 15:16:00,
2013-09-02 11:18:00,73.0,70.9,29.83,NW,305,1.0,2.0,93,0.00,,,0.05,475,Wunderground v.1.15,2013-09-02 15:18:00,
2013-09-02 11:19:00,73.1,71.0,29.83,NNE,23,1.0,2.0,93,0.00,,,0.05,462,Wunderground v.1.15,2013-09-02 15:19:00,
2013-09-02 11:20:00,73.1,71.0,29.83,NNW,331,1.0,2.0,93,0.00,,,0.05,448,Wunderground v.1.15,2013-09-02 15:20:00,
2013-09-02 11:21:00,73.2,70.7,29.83,NW,306,1.0,2.0,92,0.00,,,0.05,478,Wunderground v.1.15,2013-09-02 15:21:00,
2013-09-02 11:24:00,73.4,70.6,29.83,SE,144,2.0,4.0,91,0.00,,,0.05,531,Wunderground v.1.15,2013-09-02 15:24:00,
2013-09-02 11:25:00,73.4,70.6,29.83,East,92,2.0,4.0,91,0.00,,,0.05,504,Wunderground v.1.15,2013-09-02 15:25:00,
2013-09-02 11:26:00,73.5,71.0,29.83,WNW,284,2.0,4.0,92,0.00,,,0.05,504,Wunderground v.1.15,2013-09-02 15:26:00,
2013-09-02 11:27:00,73.6,71.1,29.83,SE,135,2.0,4.0,92,0.00,,,0.05,461,Wunderground v.1.15,2013-09-02 15:27:00,
2013-09-02 11:28:00,73.7,70.9,29.83,ESE,123,2.0,4.0,91,0.00,,,0.05,441,Wunderground v.1.15,2013-09-02 15:28:00,
2013-09-02 11:30:00,73.7,70.9,29.83,ESE,103,2.0,2.0,91,0.00,,,0.05,466,Wunderground v.1.15,2013-09-02 15:30:00,
2013-09-02 11:31:00,73.7,70.6,29.83,SE,131,2.0,2.0,90,0.00,,,0.05,403,Wunderground v.1.15,2013-09-02 15:31:00,
2013-09-02 11:36:00,73.9,70.8,29.83,SE,132,2.0,2.0,90,0.00,,,0.05,323,Wunderground v.1.15,2013-09-02 15:36:00,
2013-09-02 11:37:00,74.0,70.9,29.83,SE,132,2.0,4.0,90,0.00,,,0.05,301,Wunderground v.1.15,2013-09-02 15:37:00,
2013-09-02 11:40:00,74.0,70.9,29.83,SE,134,2.0,4.0,90,0.00,,,0.05,271,Wunderground v.1.15,2013-09-02 15:40:00,
2013-09-02 11:41:00,74.0,70.6,29.83,ESE,121,2.0,4.0,89,0.00,,,0.05,283,Wunderground v.1.15,2013-09-02 15:41:00,
2013-09-02 11:44:00,74.1,71.0,29.83,WNW,284,2.0,4.0,90,0.00,,,0.05,461,Wunderground v.1.15,2013-09-02 15:44:00,
2013-09-02 11:47:00,74.5,71.4,29.83,SE,137,2.0,4.0,90,0.00,,,0.05,334,Wunderground v.1.15,2013-09-02 15:47:00,
2013-09-02 11:49:00,74.5,71.0,29.83,SE,144,2.0,4.0,89,0.00,,,0.05,352,Wunderground v.1.15,2013-09-02 15:49:00,
2013-09-02 11:50:00,74.6,71.1,29.83,SSE,168,2.0,3.0,89,0.00,,,0.05,399,Wunderground v.1.15,2013-09-02 15:50:00,
2013-09-02 11:52:00,74.7,71.2,29.83,WNW,296,2.0,3.0,89,0.00,,,0.05,399,Wunderground v.1.15,2013-09-02 15:52:00,
2013-09-02 11:54:00,74.9,71.4,29.83,NW,315,2.0,4.0,89,0.00,,,0.05,517,Wunderground v.1.15,2013-09-02 15:54:00,
2013-09-02 11:56:00,75.0,71.5,29.83,SE,142,2.0,5.0,89,0.00,,,0.05,543,Wunderground v.1.15,2013-09-02 15:56:00,
2013-09-02 11:57:00,75.1,71.3,29.83,SE,142,2.0,5.0,88,0.00,,,0.05,543,Wunderground v.1.15,2013-09-02 15:57:00,
2013-09-02 11:58:00,75.1,71.3,29.83,SE,128,2.0,5.0,88,0.00,,,0.05,543,Wunderground v.1.15,2013-09-02 15:58:00,
2013-09-02 11:59:00,75.2,71.4,29.83,SE,128,2.0,5.0,88,0.00,,,0.05,568,Wunderground v.1.15,2013-09-02 15:59:00,
2013-09-02 12:04:00,75.6,71.5,29.83,West,280,2.0,4.0,87,0.00,,,0.05,508,Wunderground v.1.15,2013-09-02 16:04:00,
2013-09-02 12:05:00,75.7,71.6,29.83,WNW,290,2.0,4.0,87,0.00,,,0.05,508,Wunderground v.1.15,2013-09-02 16:05:00,
2013-09-02 12:06:00,75.8,71.7,29.83,WNW,296,2.0,4.0,87,0.00,,,0.05,508,Wunderground v.1.15,2013-09-02 16:06:00,
2013-09-02 12:07:00,75.9,71.8,29.83,West,279,2.0,4.0,87,0.00,,,0.05,508,Wunderground v.1.15,2013-09-02 16:07:00,
2013-09-02 12:09:00,76.0,71.8,29.83,NW,315,2.0,4.0,87,0.00,,,0.05,508,Wunderground v.1.15,2013-09-02 16:09:00,
2013-09-02 12:13:00,76.7,72.5,29.83,North,355,2.0,3.0,87,0.00,,,0.05,352,Wunderground v.1.15,2013-09-02 16:13:00,
2013-09-02 12:15:00,76.8,71.9,29.83,SE,128,2.0,4.0,85,0.00,,,0.05,396,Wunderground v.1.15,2013-09-02 16:15:00,
2013-09-02 12:16:00,76.9,72.0,29.83,SE,136,2.0,4.0,85,0.00,,,0.05,396,Wunderground v.1.15,2013-09-02 16:16:00,
2013-09-02 12:18:00,76.9,72.0,29.82,SE,136,3.0,4.0,85,0.00,,,0.05,396,Wunderground v.1.15,2013-09-02 16:18:00,
2013-09-02 12:19:00,77.0,72.1,29.82,SE,132,3.0,4.0,85,0.00,,,0.05,954,Wunderground v.1.15,2013-09-02 16:19:00,
2013-09-02 12:24:00,77.4,72.2,29.82,East,90,2.0,4.0,84,0.00,,,0.05,350,Wunderground v.1.15,2013-09-02 16:24:00,
2013-09-02 12:26:00,77.5,72.3,29.82,WNW,290,2.0,4.0,84,0.00,,,0.05,476,Wunderground v.1.15,2013-09-02 16:26:00,
2013-09-02 12:27:00,77.5,72.3,29.82,NNE,28,2.0,4.0,84,0.00,,,0.05,476,Wunderground v.1.15,2013-09-02 16:27:00,
2013-09-02 12:29:00,77.5,72.3,29.81,NNE,28,1.0,4.0,84,0.00,,,0.05,285,Wunderground v.1.15,2013-09-02 16:29:00,
2013-09-02 12:35:00,78.2,72.6,29.81,SE,146,2.0,5.0,83,0.00,,,0.05,958,Wunderground v.1.15,2013-09-02 16:35:00,
2013-09-02 12:36:00,78.3,73.1,29.81,South,190,2.0,5.0,84,0.00,,,0.05,958,Wunderground v.1.15,2013-09-02 16:36:00,
2013-09-02 12:37:00,78.5,73.6,29.81,SE,132,2.0,5.0,85,0.00,,,0.05,958,Wunderground v.1.15,2013-09-02 16:37:00,
2013-09-02 12:38:00,78.7,73.1,29.81,West,259,2.0,5.0,83,0.00,,,0.05,436,Wunderground v.1.15,2013-09-02 16:38:00,
2013-09-02 12:40:00,79.0,72.7,29.81,NW,324,3.0,3.0,81,0.00,,,0.05,986,Wunderground v.1.15,2013-09-02 16:40:00,
2013-09-02 12:43:00,79.3,72.2,29.81,NE,41,2.0,5.0,79,0.00,,,0.05,306,Wunderground v.1.15,2013-09-02 16:43:00,
2013-09-02 12:45:00,79.3,72.2,29.81,SE,135,2.0,8.0,79,0.00,,,0.05,816,Wunderground v.1.15,2013-09-02 16:45:00,
2013-09-02 12:46:00,79.3,72.2,29.81,South,188,3.0,8.0,79,0.00,,,0.05,861,Wunderground v.1.15,2013-09-02 16:46:00,
2013-09-02 12:48:00,79.3,72.6,29.81,SSW,203,3.0,8.0,80,0.00,,,0.05,844,Wunderground v.1.15,2013-09-02 16:48:00,
2013-09-02 12:50:00,79.3,72.6,29.81,SSE,149,3.0,3.0,80,0.00,,,0.05,846,Wunderground v.1.15,2013-09-02 16:50:00,
2013-09-02 12:54:00,79.4,71.9,29.80,SE,132,4.0,4.0,78,0.00,,,0.05,831,Wunderground v.1.15,2013-09-02 16:54:00,
2013-09-02 12:55:00,79.3,71.8,29.80,SE,133,3.0,4.0,78,0.00,,,0.05,613,Wunderground v.1.15,2013-09-02 16:55:00,
2013-09-02 12:56:00,79.3,71.8,29.80,SSE,165,3.0,4.0,78,0.00,,,0.05,613,Wunderground v.1.15,2013-09-02 16:56:00,
2013-09-02 12:57:00,79.3,71.8,29.80,SSE,165,3.0,4.0,78,0.00,,,0.05,613,Wunderground v.1.15,2013-09-02 16:57:00,
2013-09-02 13:00:00,79.5,72.0,29.80,SSE,154,3.0,3.0,78,0.00,,,0.05,830,Wunderground v.1.15,2013-09-02 17:00:00,
2013-09-02 13:02:00,79.8,72.3,29.80,SW,236,2.0,3.0,78,0.00,,,0.05,828,Wunderground v.1.15,2013-09-02 17:02:00,
2013-09-02 13:03:00,79.9,72.4,29.80,SW,217,2.0,3.0,78,0.00,,,0.05,837,Wunderground v.1.15,2013-09-02 17:03:00,
2013-09-02 13:05:00,80.3,73.2,29.80,SSW,201,2.0,3.0,79,0.00,,,0.05,796,Wunderground v.1.15,2013-09-02 17:05:00,
2013-09-02 13:06:00,80.4,72.5,29.80,SE,134,2.0,5.0,77,0.00,,,0.05,780,Wunderground v.1.15,2013-09-02 17:06:00,
2013-09-02 13:11:00,80.5,71.8,29.79,ESE,105,3.0,3.0,75,0.00,,,0.05,770,Wunderground v.1.15,2013-09-02 17:11:00,
2013-09-02 13:12:00,80.5,71.4,29.79,ESE,105,2.0,3.0,74,0.00,,,0.05,773,Wunderground v.1.15,2013-09-02 17:12:00,
2013-09-02 13:16:00,80.6,71.9,29.79,WNW,298,3.0,5.0,75,0.00,,,0.05,770,Wunderground v.1.15,2013-09-02 17:16:00,
2013-09-02 13:17:00,80.6,71.5,29.80,WNW,298,2.0,5.0,74,0.00,,,0.05,779,Wunderground v.1.15,2013-09-02 17:17:00,
2013-09-02 13:18:00,80.7,71.6,29.79,North,5,2.0,5.0,74,0.00,,,0.05,791,Wunderground v.1.15,2013-09-02 17:18:00,
2013-09-02 13:20:00,80.7,71.6,29.79,NW,306,2.0,4.0,74,0.00,,,0.05,807,Wunderground v.1.15,2013-09-02 17:20:00,
2013-09-02 13:22:00,80.9,72.6,29.80,SE,125,2.0,4.0,76,0.00,,,0.05,789,Wunderground v.1.15,2013-09-02 17:22:00,
2013-09-02 13:24:00,81.1,71.6,29.79,SSE,150,2.0,4.0,73,0.00,,,0.05,795,Wunderground v.1.15,2013-09-02 17:24:00,
2013-09-02 13:26:00,81.4,71.9,29.79,ESE,113,2.0,6.0,73,0.00,,,0.05,789,Wunderground v.1.15,2013-09-02 17:26:00,
2013-09-02 13:27:00,81.5,71.2,29.79,ESE,110,3.0,6.0,71,0.00,,,0.05,789,Wunderground v.1.15,2013-09-02 17:27:00,
2013-09-02 13:29:00,81.5,71.6,29.79,NW,319,4.0,6.0,72,0.00,,,0.05,786,Wunderground v.1.15,2013-09-02 17:29:00,
2013-09-02 13:32:00,81.9,71.6,29.80,WNW,300,4.0,4.0,71,0.00,,,0.05,789,Wunderground v.1.15,2013-09-02 17:32:00,
2013-09-02 13:34:00,82.2,71.4,29.79,ESE,116,3.0,5.0,70,0.00,,,0.05,784,Wunderground v.1.15,2013-09-02 17:34:00,
2013-09-02 13:36:00,82.5,73.0,29.80,ENE,67,3.0,5.0,73,0.00,,,0.05,795,Wunderground v.1.15,2013-09-02 17:36:00,
2013-09-02 13:38:00,82.9,72.1,29.79,WNW,300,2.0,5.0,70,0.00,,,0.05,803,Wunderground v.1.15,2013-09-02 17:38:00,
2013-09-02 13:41:00,83.5,72.3,29.79,WNW,285,2.0,2.0,69,0.00,,,0.05,853,Wunderground v.1.15,2013-09-02 17:41:00,
2013-09-02 13:42:00,83.7,72.4,29.79,NW,320,2.0,2.0,69,0.00,,,0.05,877,Wunderground v.1.15,2013-09-02 17:42:00,
2013-09-02 13:43:00,83.9,72.2,29.79,West,261,2.0,2.0,68,0.00,,,0.05,909,Wunderground v.1.15,2013-09-02 17:43:00,
2013-09-02 13:46:00,83.9,71.3,29.79,NNE,12,2.0,5.0,66,0.00,,,0.05,323,Wunderground v.1.15,2013-09-02 17:46:00,
2013-09-02 13:48:00,83.9,72.2,29.79,North,360,2.0,5.0,68,0.00,,,0.05,483,Wunderground v.1.15,2013-09-02 17:48:00,
2013-09-02 13:49:00,83.8,72.1,29.79,NE,51,2.0,5.0,68,0.00,,,0.05,483,Wunderground v.1.15,2013-09-02 17:49:00,
2013-09-02 13:51:00,83.8,72.1,29.79,WNW,302,2.0,4.0,68,0.00,,,0.05,207,Wunderground v.1.15,2013-09-02 17:51:00,
2013-09-02 13:52:00,83.8,71.7,29.79,NW,319,2.0,4.0,67,0.00,,,0.05,192,Wunderground v.1.15,2013-09-02 17:52:00,
2013-09-02 13:54:00,83.6,71.5,29.79,SSE,151,2.0,4.0,67,0.00,,,0.05,178,Wunderground v.1.15,2013-09-02 17:54:00,
2013-09-02 13:55:00,83.5,70.9,29.79,SE,145,2.0,4.0,66,0.00,,,0.05,185,Wunderground v.1.15,2013-09-02 17:55:00,
2013-09-02 13:57:00,83.4,70.8,29.79,NW,325,2.0,4.0,66,0.00,,,0.05,193,Wunderground v.1.15,2013-09-02 17:57:00,
2013-09-02 13:59:00,83.2,71.1,29.79,West,281,2.0,4.0,67,0.00,,,0.05,188,Wunderground v.1.15,2013-09-02 17:59:00,
2013-09-02 14:00:00,83.1,70.6,29.79,WNW,300,2.0,2.0,66,0.00,,,0.05,178,Wunderground v.1.15,2013-09-02 18:00:00,
2013-09-02 14:05:00,82.8,70.7,29.78,WNW,300,2.0,2.0,67,0.00,,,0.05,174,Wunderground v.1.15,2013-09-02 18:05:00,
2013-09-02 14:06:00,82.8,70.7,29.78,NW,321,2.0,2.0,67,0.00,,,0.05,185,Wunderground v.1.15,2013-09-02 18:06:00,
2013-09-02 14:07:00,82.7,70.2,29.78,North,355,2.0,4.0,66,0.00,,,0.05,199,Wunderground v.1.15,2013-09-02 18:07:00,
2013-09-02 14:12:00,82.7,71.5,29.79,WSW,258,2.0,2.0,69,0.00,,,0.05,325,Wunderground v.1.15,2013-09-02 18:12:00,
2013-09-02 14:13:00,82.7,71.1,29.79,WSW,246,2.0,2.0,68,0.00,,,0.05,380,Wunderground v.1.15,2013-09-02 18:13:00,
2013-09-02 14:14:00,82.7,71.1,29.78,SW,226,1.0,2.0,68,0.00,,,0.05,380,Wunderground v.1.15,2013-09-02 18:14:00,
2013-09-02 14:15:00,82.7,71.9,29.79,NNE,13,1.0,2.0,70,0.00,,,0.05,439,Wunderground v.1.15,2013-09-02 18:15:00,
2013-09-02 14:18:00,83.0,71.3,29.78,WNW,291,2.0,3.0,68,0.00,,,0.05,860,Wunderground v.1.15,2013-09-02 18:18:00,
2013-09-02 14:21:00,83.2,71.1,29.78,NNW,328,2.0,2.0,67,0.00,,,0.05,807,Wunderground v.1.15,2013-09-02 18:21:00,
2013-09-02 14:22:00,83.3,71.2,29.78,NNW,327,2.0,4.0,67,0.00,,,0.05,294,Wunderground v.1.15,2013-09-02 18:22:00,
2013-09-02 14:25:00,83.3,70.8,29.78,SE,138,2.0,4.0,66,0.00,,,0.05,248,Wunderground v.1.15,2013-09-02 18:25:00,
2013-09-02 14:29:00,83.0,70.0,29.78,SE,134,3.0,5.0,65,0.00,,,0.05,188,Wunderground v.1.15,2013-09-02 18:29:00,
2013-09-02 14:33:00,82.9,70.8,29.78,NNW,329,3.0,3.0,67,0.00,,,0.05,200,Wunderground v.1.15,2013-09-02 18:33:00,
2013-09-02 14:35:00,82.9,71.3,29.78,North,350,3.0,6.0,68,0.00,,,0.05,178,Wunderground v.1.15,2013-09-02 18:35:00,
2013-09-02 14:37:00,82.7,71.1,29.78,NW,316,3.0,6.0,68,0.00,,,0.05,171,Wunderground v.1.15,2013-09-02 18:37:00,
2013-09-02 14:41:00,82.4,71.2,29.78,WNW,302,3.0,4.0,69,0.00,,,0.05,144,Wunderground v.1.15,2013-09-02 18:41:00,
2013-09-02 14:43:00,82.4,71.2,29.78,North,5,3.0,4.0,69,0.00,,,0.05,151,Wunderground v.1.15,2013-09-02 18:43:00,
2013-09-02 14:44:00,82.3,70.7,29.78,NNE,12,3.0,4.0,68,0.00,,,0.05,689,Wunderground v.1.15,2013-09-02 18:44:00,
2013-09-02 14:46:00,82.3,71.5,29.78,SSE,161,2.0,4.0,70,0.00,,,0.05,155,Wunderground v.1.15,2013-09-02 18:46:00,
2013-09-02 14:48:00,82.5,71.7,29.78,South,173,2.0,4.0,70,0.00,,,0.05,670,Wunderground v.1.15,2013-09-02 18:48:00,
2013-09-02 14:49:00,82.6,71.4,29.78,SSW,193,2.0,4.0,69,0.00,,,0.05,664,Wunderground v.1.15,2013-09-02 18:49:00,
2013-09-02 14:50:00,82.9,72.5,29.78,SW,225,1.0,1.0,71,0.00,,,0.05,654,Wunderground v.1.15,2013-09-02 18:50:00,
2013-09-02 14:55:00,83.5,71.4,29.78,SE,130,1.0,4.0,67,0.00,,,0.05,682,Wunderground v.1.15,2013-09-02 18:55:00,
2013-09-02 14:57:00,83.9,72.2,29.77,ESE,113,1.0,4.0,68,0.00,,,0.05,700,Wunderground v.1.15,2013-09-02 18:57:00,
2013-09-02 14:59:00,84.0,71.9,29.77,SE,138,1.0,4.0,67,0.00,,,0.05,700,Wunderground v.1.15,2013-09-02 18:59:00,
2013-09-02 15:00:00,84.2,72.0,29.77,North,355,1.0,4.0,67,0.00,,,0.05,684,Wunderground v.1.15,2013-09-02 19:00:00,
2013-09-02 15:04:00,84.3,72.1,29.77,NNE,19,2.0,5.0,67,0.00,,,0.05,643,Wunderground v.1.15,2013-09-02 19:04:00,
2013-09-02 15:05:00,84.5,72.3,29.77,SE,124,2.0,6.0,67,0.00,,,0.05,642,Wunderground v.1.15,2013-09-02 19:05:00,
2013-09-02 15:08:00,84.3,69.9,29.76,ESE,117,4.0,8.0,62,0.00,,,0.05,656,Wunderground v.1.15,2013-09-02 19:08:00,
2013-09-02 15:10:00,84.2,70.7,29.76,SE,132,4.0,4.0,64,0.00,,,0.05,638,Wunderground v.1.15,2013-09-02 19:10:00,
2013-09-02 15:11:00,84.3,70.3,29.77,North,351,4.0,4.0,63,0.00,,,0.05,636,Wunderground v.1.15,2013-09-02 19:11:00,
2013-09-02 15:13:00,84.4,70.4,29.76,NW,315,4.0,4.0,63,0.00,,,0.05,647,Wunderground v.1.15,2013-09-02 19:13:00,
2013-09-02 15:14:00,84.5,71.0,29.76,NE,44,4.0,4.0,64,0.00,,,0.05,621,Wunderground v.1.15,2013-09-02 19:14:00,
2013-09-02 15:15:00,84.5,70.5,29.77,SE,126,5.0,5.0,63,0.00,,,0.05,621,Wunderground v.1.15,2013-09-02 19:15:00,
2013-09-02 15:17:00,84.4,70.0,29.76,SE,137,5.0,9.0,62,0.00,,,0.05,214,Wunderground v.1.15,2013-09-02 19:17:00,
2013-09-02 15:21:00,84.0,70.5,29.76,ENE,68,5.0,5.0,64,0.00,,,0.05,610,Wunderground v.1.15,2013-09-02 19:21:00,
2013-09-02 15:22:00,84.0,70.5,29.76,SSE,152,5.0,5.0,64,0.00,,,0.05,608,Wunderground v.1.15,2013-09-02 19:22:00,
2013-09-02 15:23:00,84.0,70.5,29.76,WNW,282,4.0,5.0,64,0.00,,,0.05,606,Wunderground v.1.15,2013-09-02 19:23:00,
2013-09-02 15:24:00,84.1,71.1,29.76,NW,319,4.0,5.0,65,0.00,,,0.05,606,Wunderground v.1.15,2013-09-02 19:24:00,
2013-09-02 15:30:00,84.1,70.6,29.76,West,274,2.0,2.0,64,0.00,,,0.05,74,Wunderground v.1.15,2013-09-02 19:30:00,
2013-09-02 15:31:00,84.1,70.6,29.76,WNW,299,2.0,4.0,64,0.00,,,0.05,74,Wunderground v.1.15,2013-09-02 19:31:00,
2013-09-02 15:34:00,84.0,70.5,29.76,WNW,294,2.0,4.0,64,0.00,,,0.05,72,Wunderground v.1.15,2013-09-02 19:34:00,
2013-09-02 15:36:00,83.8,70.3,29.76,WNW,289,2.0,4.0,64,0.00,,,0.05,90,Wunderground v.1.15,2013-09-02 19:36:00,
2013-09-02 15:37:00,83.7,70.7,29.76,NE,44,2.0,4.0,65,0.00,,,0.05,104,Wunderground v.1.15,2013-09-02 19:37:00,
2013-09-02 15:38:00,83.6,70.6,29.76,NW,312,2.0,4.0,65,0.00,,,0.05,104,Wunderground v.1.15,2013-09-02 19:38:00,
2013-09-02 15:43:00,83.9,71.3,29.75,East,86,2.0,3.0,66,0.00,,,0.05,638,Wunderground v.1.15,2013-09-02 19:43:00,
2013-09-02 15:44:00,84.0,70.5,29.75,SE,146,2.0,4.0,64,0.00,,,0.05,633,Wunderground v.1.15,2013-09-02 19:44:00,
2013-09-02 15:45:00,84.1,70.6,29.75,SE,140,3.0,4.0,64,0.00,,,0.05,624,Wunderground v.1.15,2013-09-02 19:45:00,
2013-09-02 15:46:00,84.3,71.2,29.75,ENE,69,2.0,4.0,65,0.00,,,0.05,606,Wunderground v.1.15,2013-09-02 19:46:00,
2013-09-02 15:49:00,84.7,70.7,29.75,West,278,2.0,4.0,63,0.00,,,0.05,578,Wunderground v.1.15,2013-09-02 19:49:00,
2013-09-02 15:50:00,84.8,71.3,29.75,NW,306,2.0,4.0,64,0.00,,,0.05,571,Wunderground v.1.15,2013-09-02 19:50:00,
2013-09-02 15:51:00,84.9,71.4,29.75,North,355,2.0,4.0,64,0.00,,,0.05,570,Wunderground v.1.15,2013-09-02 19:51:00,
2013-09-02 15:53:00,85.0,71.0,29.75,ENE,66,2.0,4.0,63,0.00,,,0.05,564,Wunderground v.1.15,2013-09-02 19:53:00,
2013-09-02 15:56:00,85.3,71.3,29.75,SE,136,2.0,4.0,63,0.00,,,0.05,543,Wunderground v.1.15,2013-09-02 19:56:00,
2013-09-02 15:57:00,85.3,70.3,29.75,SSE,150,2.0,4.0,61,0.00,,,0.05,540,Wunderground v.1.15,2013-09-02 19:57:00,
2013-09-02 15:59:00,85.5,71.0,29.75,NW,319,2.0,4.0,62,0.00,,,0.05,538,Wunderground v.1.15,2013-09-02 19:59:00,
2013-09-02 16:02:00,85.6,70.6,29.75,West,265,2.0,2.0,61,0.00,,,0.05,547,Wunderground v.1.15,2013-09-02 20:02:00,
2013-09-02 16:03:00,85.7,70.2,29.75,SE,132,2.0,2.0,60,0.00,,,0.05,538,Wunderground v.1.15,2013-09-02 20:03:00,
2013-09-02 16:05:00,85.7,69.7,29.75,ESE,118,2.0,5.0,59,0.00,,,0.05,519,Wunderground v.1.15,2013-09-02 20:05:00,
2013-09-02 16:07:00,85.7,70.2,29.75,West,279,2.0,5.0,60,0.00,,,0.05,485,Wunderground v.1.15,2013-09-02 20:07:00,
2013-09-02 16:08:00,85.7,70.7,29.75,West,279,2.0,5.0,61,0.00,,,0.05,492,Wunderground v.1.15,2013-09-02 20:08:00,
2013-09-02 16:09:00,85.8,70.8,29.75,NW,321,2.0,5.0,61,0.00,,,0.05,478,Wunderground v.1.15,2013-09-02 20:09:00,
2013-09-02 16:12:00,85.9,69.9,29.75,SSE,155,2.0,5.0,59,0.00,,,0.05,473,Wunderground v.1.15,2013-09-02 20:12:00,
2013-09-02 16:15:00,85.6,69.6,29.75,SE,127,3.0,7.0,59,0.00,,,0.05,183,Wunderground v.1.15,2013-09-02 20:15:00,
2013-09-02 16:16:00,85.5,69.5,29.75,ESE,120,3.0,7.0,59,0.00,,,0.05,183,Wunderground v.1.15,2013-09-02 20:16:00,
2013-09-02 16:17:00,85.4,69.9,29.75,SSE,152,3.0,7.0,60,0.00,,,0.05,461,Wunderground v.1.15,2013-09-02 20:17:00,
2013-09-02 16:20:00,85.4,69.9,29.75,East,90,4.0,4.0,60,0.00,,,0.05,538,Wunderground v.1.15,2013-09-02 20:20:00,
2013-09-02 16:23:00,85.6,69.6,29.74,SSE,153,3.0,6.0,59,0.00,,,0.05,432,Wunderground v.1.15,2013-09-02 20:23:00,
2013-09-02 16:24:00,85.6,69.6,29.74,SE,144,3.0,6.0,59,0.00,,,0.05,533,Wunderground v.1.15,2013-09-02 20:24:00,
2013-09-02 16:25:00,85.6,70.1,29.74,SSE,160,3.0,6.0,60,0.00,,,0.05,462,Wunderground v.1.15,2013-09-02 20:25:00,
2013-09-02 16:26:00,85.7,69.7,29.74,East,101,3.0,6.0,59,0.00,,,0.05,510,Wunderground v.1.15,2013-09-02 20:26:00,
2013-09-02 16:29:00,85.9,69.9,29.74,SE,131,2.0,7.0,59,0.00,,,0.05,459,Wunderground v.1.15,2013-09-02 20:29:00,
2013-09-02 16:30:00,85.9,69.9,29.74,SE,132,3.0,5.0,59,0.00,,,0.05,468,Wunderground v.1.15,2013-09-02 20:30:00,
2013-09-02 16:31:00,85.9,69.9,29.74,SSE,149,3.0,7.0,59,0.00,,,0.05,468,Wunderground v.1.15,2013-09-02 20:31:00,
2013-09-02 16:33:00,85.8,69.3,29.74,SE,137,3.0,7.0,58,0.00,,,0.05,454,Wunderground v.1.15,2013-09-02 20:33:00,
2013-09-02 16:35:00,85.7,69.7,29.74,ESE,119,4.0,7.0,59,0.00,,,0.05,146,Wunderground v.1.15,2013-09-02 20:35:00,
2013-09-02 16:37:00,85.6,69.6,29.74,SSE,158,4.0,7.0,59,0.00,,,0.05,146,Wunderground v.1.15,2013-09-02 20:37:00,
2013-09-02 16:40:00,85.2,69.7,29.74,SSE,152,5.0,5.0,60,0.00,,,0.05,109,Wunderground v.1.15,2013-09-02 20:40:00,
2013-09-02 16:43:00,85.0,69.6,29.74,SSE,151,4.0,5.0,60,0.00,,,0.05,121,Wunderground v.1.15,2013-09-02 20:43:00,
2013-09-02 16:44:00,85.0,70.0,29.74,SSE,151,4.0,5.0,61,0.00,,,0.05,121,Wunderground v.1.15,2013-09-02 20:44:00,
2013-09-02 16:47:00,85.0,70.0,29.74,ESE,109,3.0,5.0,61,0.00,,,0.05,116,Wunderground v.1.15,2013-09-02 20:47:00,
2013-09-02 16:49:00,85.0,70.5,29.74,SE,136,2.0,7.0,62,0.00,,,0.05,130,Wunderground v.1.15,2013-09-02 20:49:00,
2013-09-02 16:50:00,85.0,70.5,29.74,ESE,123,3.0,6.0,62,0.00,,,0.05,214,Wunderground v.1.15,2013-09-02 20:50:00,
2013-09-02 16:51:00,85.1,70.6,29.74,East,97,3.0,6.0,62,0.00,,,0.05,211,Wunderground v.1.15,2013-09-02 20:51:00,
2013-09-02 16:52:00,85.0,70.5,29.74,SSW,207,3.0,6.0,62,0.00,,,0.05,171,Wunderground v.1.15,2013-09-02 20:52:00,
2013-09-02 16:54:00,85.0,70.5,29.74,SE,142,3.0,6.0,62,0.00,,,0.05,120,Wunderground v.1.15,2013-09-02 20:54:00,
2013-09-02 16:55:00,85.1,70.6,29.74,SE,137,4.0,6.0,62,0.00,,,0.05,105,Wunderground v.1.15,2013-09-02 20:55:00,
2013-09-02 16:57:00,85.2,70.7,29.74,SE,133,4.0,6.0,62,0.00,,,0.05,105,Wunderground v.1.15,2013-09-02 20:57:00,
2013-09-02 16:59:00,85.1,70.6,29.74,SSE,150,4.0,6.0,62,0.00,,,0.05,102,Wunderground v.1.15,2013-09-02 20:59:00,
2013-09-02 17:00:00,85.1,70.6,29.75,SE,138,4.0,4.0,62,0.00,,,0.05,98,Wunderground v.1.15,2013-09-02 21:00:00,
2013-09-02 17:02:00,85.1,70.6,29.75,ESE,116,3.0,4.0,62,0.00,,,0.05,102,Wunderground v.1.15,2013-09-02 21:02:00,
2013-09-02 17:04:00,85.1,69.7,29.75,SSE,149,3.0,4.0,60,0.00,,,0.05,100,Wunderground v.1.15,2013-09-02 21:04:00,
2013-09-02 17:05:00,85.1,69.7,29.75,ESE,121,3.0,6.0,60,0.00,,,0.05,97,Wunderground v.1.15,2013-09-02 21:05:00,
2013-09-02 17:07:00,85.1,69.7,29.74,SE,134,3.0,7.0,60,0.00,,,0.05,95,Wunderground v.1.15,2013-09-02 21:07:00,
2013-09-02 17:11:00,84.9,69.9,29.74,ESE,119,3.0,5.0,61,0.00,,,0.05,88,Wunderground v.1.15,2013-09-02 21:11:00,
2013-09-02 17:13:00,84.9,69.5,29.74,ESE,117,3.0,5.0,60,0.00,,,0.05,88,Wunderground v.1.15,2013-09-02 21:13:00,
2013-09-02 17:15:00,84.8,69.9,29.74,SSE,159,3.0,5.0,61,0.00,,,0.05,90,Wunderground v.1.15,2013-09-02 21:15:00,
2013-09-02 17:17:00,84.8,69.4,29.75,SE,127,3.0,6.0,60,0.00,,,0.05,90,Wunderground v.1.15,2013-09-02 21:17:00,
2013-09-02 17:19:00,84.7,69.3,29.75,ESE,109,4.0,8.0,60,0.00,,,0.05,86,Wunderground v.1.15,2013-09-02 21:19:00,
2013-09-02 17:21:00,84.5,69.6,29.74,ESE,123,4.0,4.0,61,0.00,,,0.05,84,Wunderground v.1.15,2013-09-02 21:21:00,
2013-09-02 17:26:00,84.5,69.6,29.74,SSE,152,4.0,5.0,61,0.00,,,0.05,83,Wunderground v.1.15,2013-09-02 21:26:00,
2013-09-02 17:28:00,84.4,69.5,29.74,ESE,121,3.0,5.0,61,0.00,,,0.05,81,Wunderground v.1.15,2013-09-02 21:28:00,
2013-09-02 17:29:00,84.4,69.5,29.74,SE,128,3.0,5.0,61,0.00,,,0.05,79,Wunderground v.1.15,2013-09-02 21:29:00,
2013-09-02 17:30:00,84.4,69.5,29.74,SE,137,3.0,5.0,61,0.00,,,0.05,79,Wunderground v.1.15,2013-09-02 21:30:00,
2013-09-02 17:31:00,84.4,69.5,29.74,South,172,3.0,5.0,61,0.00,,,0.05,79,Wunderground v.1.15,2013-09-02 21:31:00,
2013-09-02 17:33:00,84.3,69.9,29.74,SE,128,3.0,5.0,62,0.00,,,0.05,77,Wunderground v.1.15,2013-09-02 21:33:00,
2013-09-02 17:36:00,84.2,69.8,29.74,SW,224,3.0,5.0,62,0.00,,,0.05,69,Wunderground v.1.15,2013-09-02 21:36:00,
2013-09-02 17:37:00,84.2,69.8,29.74,ESE,116,3.0,5.0,62,0.00,,,0.05,67,Wunderground v.1.15,2013-09-02 21:37:00,
2013-09-02 17:38:00,84.2,69.8,29.74,ESE,121,3.0,5.0,62,0.00,,,0.05,70,Wunderground v.1.15,2013-09-02 21:38:00,
2013-09-02 17:41:00,84.2,69.8,29.74,SE,130,3.0,8.0,62,0.00,,,0.05,62,Wunderground v.1.15,2013-09-02 21:41:00,
2013-09-02 17:43:00,84.1,69.7,29.73,SE,131,4.0,8.0,62,0.00,,,0.05,74,Wunderground v.1.15,2013-09-02 21:43:00,
2013-09-02 17:46:00,84.1,69.7,29.73,SE,134,4.0,8.0,62,0.00,,,0.05,74,Wunderground v.1.15,2013-09-02 21:46:00,
2013-09-02 17:47:00,84.1,69.7,29.73,ESE,114,5.0,8.0,62,0.00,,,0.05,76,Wunderground v.1.15,2013-09-02 21:47:00,
2013-09-02 17:51:00,84.3,69.9,29.74,SE,139,5.0,7.0,62,0.00,,,0.05,83,Wunderground v.1.15,2013-09-02 21:51:00,
2013-09-02 17:52:00,84.3,69.9,29.73,SE,139,4.0,7.0,62,0.00,,,0.05,86,Wunderground v.1.15,2013-09-02 21:52:00,
2013-09-02 17:53:00,84.3,69.9,29.74,SE,139,4.0,7.0,62,0.00,,,0.05,86,Wunderground v.1.15,2013-09-02 21:53:00,
2013-09-02 17:57:00,84.5,70.0,29.73,SE,144,4.0,7.0,62,0.00,,,0.05,84,Wunderground v.1.15,2013-09-02 21:57:00,
2013-09-02 17:58:00,84.5,70.0,29.73,SE,136,3.0,7.0,62,0.00,,,0.05,70,Wunderground v.1.15,2013-09-02 21:58:00,
2013-09-02 18:00:00,84.5,70.0,29.73,ESE,118,4.0,4.0,62,0.00,,,0.05,56,Wunderground v.1.15,2013-09-02 22:00:00,
2013-09-02 18:01:00,84.5,70.0,29.73,SE,135,3.0,4.0,62,0.00,,,0.05,56,Wunderground v.1.15,2013-09-02 22:01:00,
2013-09-02 18:04:00,84.4,70.0,29.74,SE,137,4.0,7.0,62,0.00,,,0.05,62,Wunderground v.1.15,2013-09-02 22:04:00,
2013-09-02 18:05:00,84.3,69.9,29.73,SE,129,4.0,7.0,62,0.00,,,0.05,58,Wunderground v.1.15,2013-09-02 22:05:00,
2013-09-02 18:07:00,84.3,69.9,29.74,SE,134,4.0,7.0,62,0.00,,,0.05,51,Wunderground v.1.15,2013-09-02 22:07:00,
2013-09-02 18:08:00,84.2,69.8,29.74,SE,130,4.0,7.0,62,0.00,,,0.05,49,Wunderground v.1.15,2013-09-02 22:08:00,
2013-09-02 18:09:00,84.2,70.2,29.74,SE,139,4.0,7.0,63,0.00,,,0.05,47,Wunderground v.1.15,2013-09-02 22:09:00,
2013-09-02 18:10:00,84.2,70.2,29.74,SE,139,4.0,4.0,63,0.00,,,0.05,46,Wunderground v.1.15,2013-09-02 22:10:00,
2013-09-02 18:11:00,84.2,70.2,29.74,SE,125,4.0,4.0,63,0.00,,,0.05,46,Wunderground v.1.15,2013-09-02 22:11:00,
2013-09-02 18:12:00,84.2,70.2,29.74,SE,142,4.0,4.0,63,0.00,,,0.05,47,Wunderground v.1.15,2013-09-02 22:12:00,
2013-09-02 18:16:00,84.2,69.8,29.74,SE,139,3.0,6.0,62,0.00,,,0.05,46,Wunderground v.1.15,2013-09-02 22:16:00,
2013-09-02 18:18:00,84.1,69.7,29.74,SE,126,3.0,6.0,62,0.00,,,0.05,47,Wunderground v.1.15,2013-09-02 22:18:00,
2013-09-02 18:19:00,84.1,70.1,29.74,SE,125,3.0,6.0,63,0.00,,,0.05,49,Wunderground v.1.15,2013-09-02 22:19:00,
2013-09-02 18:21:00,84.1,70.1,29.74,NNW,336,3.0,3.0,63,0.00,,,0.05,47,Wunderground v.1.15,2013-09-02 22:21:00,
2013-09-02 18:24:00,84.0,70.0,29.74,ESE,122,3.0,3.0,63,0.00,,,0.05,51,Wunderground v.1.15,2013-09-02 22:24:00,
2013-09-02 18:27:00,84.0,70.5,29.74,SSE,159,3.0,5.0,64,0.00,,,0.05,47,Wunderground v.1.15,2013-09-02 22:27:00,
2013-09-02 18:29:00,83.9,70.4,29.74,SE,145,2.0,5.0,64,0.00,,,0.05,46,Wunderground v.1.15,2013-09-02 22:29:00,
2013-09-02 18:30:00,83.9,70.4,29.74,SE,131,3.0,3.0,64,0.00,,,0.05,44,Wunderground v.1.15,2013-09-02 22:30:00,
2013-09-02 18:31:00,83.9,70.4,29.74,SE,131,3.0,3.0,64,0.00,,,0.05,42,Wunderground v.1.15,2013-09-02 22:31:00,
2013-09-02 18:33:00,83.8,70.3,29.73,ESE,121,3.0,3.0,64,0.00,,,0.05,32,Wunderground v.1.15,2013-09-02 22:33:00,
2013-09-02 18:35:00,83.7,70.7,29.73,SE,133,2.0,3.0,65,0.00,,,0.05,25,Wunderground v.1.15,2013-09-02 22:35:00,
2013-09-02 18:36:00,83.7,70.7,29.73,SE,133,2.0,3.0,65,0.00,,,0.05,21,Wunderground v.1.15,2013-09-02 22:36:00,
2013-09-02 18:39:00,83.6,70.6,29.73,SE,138,2.0,3.0,65,0.00,,,0.05,19,Wunderground v.1.15,2013-09-02 22:39:00,
2013-09-02 18:42:00,83.5,70.5,29.73,SSE,160,2.0,3.0,65,0.00,,,0.05,19,Wunderground v.1.15,2013-09-02 22:42:00,
2013-09-02 18:44:00,83.4,70.4,29.73,SSE,162,2.0,4.0,65,0.00,,,0.05,19,Wunderground v.1.15,2013-09-02 22:44:00,
2013-09-02 18:45:00,83.3,70.8,29.73,SSE,162,2.0,4.0,66,0.00,,,0.05,19,Wunderground v.1.15,2013-09-02 22:45:00,
2013-09-02 18:47:00,83.2,70.7,29.73,SSE,160,2.0,4.0,66,0.00,,,0.05,21,Wunderground v.1.15,2013-09-02 22:47:00,
2013-09-02 18:48:00,83.2,70.7,29.72,South,178,2.0,4.0,66,0.00,,,0.05,21,Wunderground v.1.15,2013-09-02 22:48:00,
2013-09-02 18:50:00,83.1,70.6,29.72,SE,146,2.0,2.0,66,0.00,,,0.05,25,Wunderground v.1.15,2013-09-02 22:50:00,
2013-09-02 18:55:00,82.8,70.7,29.72,SE,146,2.0,3.0,67,0.00,,,0.05,33,Wunderground v.1.15,2013-09-02 22:55:00,
2013-09-02 18:56:00,82.8,70.7,29.72,South,182,2.0,5.0,67,0.00,,,0.05,35,Wunderground v.1.15,2013-09-02 22:56:00,
2013-09-02 18:58:00,82.7,70.6,29.72,South,169,2.0,5.0,67,0.00,,,0.05,37,Wunderground v.1.15,2013-09-02 22:58:00,
2013-09-02 19:01:00,82.6,71.0,29.72,ESE,120,3.0,3.0,68,0.00,,,0.05,35,Wunderground v.1.15,2013-09-02 23:01:00,
2013-09-02 19:03:00,82.5,70.9,29.72,SSE,153,3.0,4.0,68,0.00,,,0.05,33,Wunderground v.1.15,2013-09-02 23:03:00,
2013-09-02 19:04:00,82.5,70.9,29.72,SSE,149,3.0,5.0,68,0.00,,,0.05,30,Wunderground v.1.15,2013-09-02 23:04:00,
2013-09-02 19:05:00,82.5,70.9,29.73,SSE,164,4.0,5.0,68,0.00,,,0.05,28,Wunderground v.1.15,2013-09-02 23:05:00,
2013-09-02 19:09:00,82.4,70.8,29.72,South,180,4.0,7.0,68,0.00,,,0.05,19,Wunderground v.1.15,2013-09-02 23:09:00,
2013-09-02 19:11:00,82.3,70.7,29.72,SE,133,5.0,5.0,68,0.00,,,0.05,18,Wunderground v.1.15,2013-09-02 23:11:00,
2013-09-02 19:12:00,82.3,70.7,29.72,ESE,121,5.0,6.0,68,0.00,,,0.05,18,Wunderground v.1.15,2013-09-02 23:12:00,
2013-09-02 19:16:00,82.1,70.9,29.72,SSE,163,6.0,7.0,69,0.00,,,0.05,12,Wunderground v.1.15,2013-09-02 23:16:00,
2013-09-02 19:17:00,82.0,70.8,29.72,SE,142,5.0,8.0,69,0.00,,,0.05,11,Wunderground v.1.15,2013-09-02 23:17:00,
2013-09-02 19:22:00,81.8,70.6,29.73,SE,128,5.0,6.0,69,0.00,,,0.05,0,Wunderground v.1.15,2013-09-02 23:22:00,
2013-09-02 19:23:00,81.8,70.6,29.73,South,171,5.0,6.0,69,0.00,,,0.05,0,Wunderground v.1.15,2013-09-02 23:23:00,
2013-09-02 19:24:00,81.7,70.5,29.73,SE,136,5.0,6.0,69,0.00,,,0.05,0,Wunderground v.1.15,2013-09-02 23:24:00,
2013-09-02 19:26:00,81.7,71.0,29.73,ESE,113,5.0,6.0,70,0.00,,,0.05,0,Wunderground v.1.15,2013-09-02 23:26:00,
2013-09-02 19:27:00,81.6,70.9,29.73,SSE,150,5.0,7.0,70,0.00,,,0.05,0,Wunderground v.1.15,2013-09-02 23:27:00,
2013-09-02 19:32:00,81.1,70.8,29.73,SE,141,6.0,13.0,71,0.00,,,0.05,0,Wunderground v.1.15,2013-09-02 23:32:00,
2013-09-02 19:33:00,81.1,71.2,29.73,SW,232,6.0,13.0,72,0.00,,,0.05,0,Wunderground v.1.15,2013-09-02 23:33:00,
2013-09-02 19:34:00,81.1,71.2,29.74,ESE,107,6.0,13.0,72,0.00,,,0.05,0,Wunderground v.1.15,2013-09-02 23:34:00,
2013-09-02 19:40:00,80.3,70.9,29.74,East,96,7.0,10.0,73,0.00,,,0.05,0,Wunderground v.1.15,2013-09-02 23:40:00,
2013-09-02 19:41:00,80.2,70.4,29.74,ESE,119,8.0,13.0,72,0.00,,,0.05,0,Wunderground v.1.15,2013-09-02 23:41:00,
2013-09-02 19:42:00,80.0,70.2,29.74,SE,128,8.0,13.0,72,0.00,,,0.05,0,Wunderground v.1.15,2013-09-02 23:42:00,
2013-09-02 19:43:00,79.9,70.1,29.74,ESE,117,9.0,13.0,72,0.00,,,0.05,0,Wunderground v.1.15,2013-09-02 23:43:00,
2013-09-02 19:44:00,79.7,69.5,29.74,SE,136,9.0,13.0,71,0.00,,,0.05,0,Wunderground v.1.15,2013-09-02 23:44:00,
2013-09-02 19:46:00,79.5,69.7,29.75,SE,142,10.0,13.0,72,0.00,,,0.05,0,Wunderground v.1.15,2013-09-02 23:46:00,
2013-09-02 19:48:00,79.3,69.5,29.75,SE,143,10.0,13.0,72,0.00,,,0.05,0,Wunderground v.1.15,2013-09-02 23:48:00,
2013-09-02 19:50:00,79.2,69.4,29.75,SE,146,9.0,9.0,72,0.00,,,0.05,0,Wunderground v.1.15,2013-09-02 23:50:00,
2013-09-02 19:51:00,79.2,69.4,29.75,WSW,245,8.0,9.0,72,0.00,,,0.05,0,Wunderground v.1.15,2013-09-02 23:51:00,
2013-09-02 19:57:00,78.9,69.1,29.75,West,261,4.0,9.0,72,0.00,,,0.05,0,Wunderground v.1.15,2013-09-02 23:57:00,
2013-09-02 19:58:00,78.9,68.7,29.75,ESE,121,4.0,9.0,71,0.00,,,0.05,0,Wunderground v.1.15,2013-09-02 23:58:00,
2013-09-02 19:59:00,78.9,68.7,29.75,SE,139,4.0,11.0,71,0.00,,,0.05,0,Wunderground v.1.15,2013-09-02 23:59:00,
2013-09-02 20:00:00,78.8,68.6,29.75,SE,138,4.0,6.0,71,0.00,,,0.05,0,Wunderground v.1.15,2013-09-03 00:00:00,
2013-09-02 20:04:00,78.5,68.3,29.75,SE,126,5.0,11.0,71,0.00,,,0.05,0,Wunderground v.1.15,2013-09-03 00:04:00,
2013-09-02 20:05:00,78.5,68.3,29.75,SE,132,6.0,11.0,71,0.00,,,0.05,0,Wunderground v.1.15,2013-09-03 00:05:00,
2013-09-02 20:06:00,78.4,68.6,29.75,NNW,345,6.0,11.0,72,0.00,,,0.05,0,Wunderground v.1.15,2013-09-03 00:06:00,
2013-09-02 20:11:00,78.2,68.4,29.75,SE,124,5.0,6.0,72,0.00,,,0.05,0,Wunderground v.1.15,2013-09-03 00:11:00,
2013-09-02 20:12:00,78.2,68.4,29.75,SE,146,5.0,8.0,72,0.00,,,0.05,0,Wunderground v.1.15,2013-09-03 00:12:00,
2013-09-02 20:13:00,78.1,68.3,29.75,ESE,115,5.0,8.0,72,0.00,,,0.05,0,Wunderground v.1.15,2013-09-03 00:13:00,
2013-09-02 20:14:00,78.1,68.7,29.75,ESE,113,4.0,8.0,73,0.00,,,0.05,0,Wunderground v.1.15,2013-09-03 00:14:00,
2013-09-02 20:17:00,78.0,68.6,29.75,WSW,247,4.0,8.0,73,0.00,,,0.05,0,Wunderground v.1.15,2013-09-03 00:17:00,
2013-09-02 20:18:00,78.0,68.6,29.75,East,86,4.0,8.0,73,0.00,,,0.05,0,Wunderground v.1.15,2013-09-03 00:18:00,
2013-09-02 20:19:00,77.9,68.9,29.75,WSW,252,3.0,8.0,74,0.00,,,0.05,0,Wunderground v.1.15,2013-09-03 00:19:00,
2013-09-02 20:22:00,77.7,68.7,29.75,NNE,23,3.0,3.0,74,0.00,,,0.05,0,Wunderground v.1.15,2013-09-03 00:22:00,
2013-09-02 20:24:00,77.6,69.0,29.75,NNW,346,2.0,4.0,75,0.00,,,0.05,0,Wunderground v.1.15,2013-09-03 00:24:00,
2013-09-02 20:25:00,77.5,68.6,29.75,NNW,344,3.0,4.0,74,0.00,,,0.05,0,Wunderground v.1.15,2013-09-03 00:25:00,
2013-09-02 20:26:00,77.5,68.9,29.75,WNW,302,3.0,4.0,75,0.00,,,0.05,0,Wunderground v.1.15,2013-09-03 00:26:00,
2013-09-02 20:27:00,77.4,68.9,29.75,NNW,340,3.0,4.0,75,0.00,,,0.05,0,Wunderground v.1.15,2013-09-03 00:27:00,
2013-09-02 20:31:00,77.3,68.8,29.76,NW,323,2.0,2.0,75,0.00,,,0.05,0,Wunderground v.1.15,2013-09-03 00:31:00,
2013-09-02 20:34:00,77.2,68.3,29.75,WNW,299,2.0,2.0,74,0.00,,,0.05,0,Wunderground v.1.15,2013-09-03 00:34:00,
2013-09-02 20:37:00,77.0,68.1,29.75,ESE,123,1.0,4.0,74,0.00,,,0.05,0,Wunderground v.1.15,2013-09-03 00:37:00,
2013-09-02 20:38:00,77.0,68.1,29.75,South,173,1.0,4.0,74,0.00,,,0.05,0,Wunderground v.1.15,2013-09-03 00:38:00,
2013-09-02 20:39:00,77.0,68.1,29.75,SSW,213,1.0,4.0,74,0.00,,,0.05,0,Wunderground v.1.15,2013-09-03 00:39:00,
2013-09-02 20:44:00,76.9,68.0,29.75,SE,128,2.0,5.0,74,0.00,,,0.05,0,Wunderground v.1.15,2013-09-03 00:44:00,
2013-09-02 20:45:00,76.9,68.0,29.75,ESE,121,2.0,5.0,74,0.00,,,0.05,0,Wunderground v.1.15,2013-09-03 00:45:00,
2013-09-02 20:46:00,76.9,68.4,29.75,SSW,201,2.0,5.0,75,0.00,,,0.05,0,Wunderground v.1.15,2013-09-03 00:46:00,
2013-09-02 20:47:00,76.9,68.4,29.75,SSE,160,2.0,5.0,75,0.00,,,0.05,0,Wunderground v.1.15,2013-09-03 00:47:00,
2013-09-02 20:49:00,76.8,68.3,29.76,ESE,117,2.0,3.0,75,0.00,,,0.05,0,Wunderground v.1.15,2013-09-03 00:49:00,
2013-09-02 20:52:00,76.6,68.1,29.76,SE,130,2.0,4.0,75,0.00,,,0.05,0,Wunderground v.1.15,2013-09-03 00:52:00,
2013-09-02 20:56:00,76.4,68.3,29.75,SE,128,2.0,5.0,76,0.00,,,0.05,0,Wunderground v.1.15,2013-09-03 00:56:00,
2013-09-02 20:58:00,76.3,68.2,29.75,SE,128,3.0,5.0,76,0.00,,,0.05,0,Wunderground v.1.15,2013-09-03 00:58:00,
2013-09-02 21:00:00,76.2,68.1,29.75,SSE,166,3.0,3.0,76,0.00,,,0.05,0,Wunderground v.1.15,2013-09-03 01:00:00,
2013-09-02 21:02:00,76.0,67.9,29.75,SE,140,3.0,3.0,76,0.00,,,0.05,0,Wunderground v.1.15,2013-09-03 01:02:00,
2013-09-02 21:05:00,75.9,68.2,29.74,SE,142,3.0,5.0,77,0.00,,,0.05,0,Wunderground v.1.15,2013-09-03 01:05:00,
2013-09-02 21:07:00,75.7,68.0,29.74,South,179,3.0,5.0,77,0.00,,,0.05,0,Wunderground v.1.15,2013-09-03 01:07:00,
2013-09-02 21:11:00,75.5,68.2,29.73,SSE,165,2.0,2.0,78,0.00,,,0.05,0,Wunderground v.1.15,2013-09-03 01:11:00,
2013-09-02 21:12:00,75.5,68.2,29.73,SSE,165,2.0,2.0,78,0.00,,,0.05,0,Wunderground v.1.15,2013-09-03 01:12:00,
2013-09-02 21:14:00,75.5,68.2,29.73,NNW,333,2.0,2.0,78,0.00,,,0.05,0,Wunderground v.1.15,2013-09-03 01:14:00,
2013-09-02 21:16:00,75.4,67.7,29.74,NW,317,1.0,2.0,77,0.00,,,0.05,0,Wunderground v.1.15,2013-09-03 01:16:00,
2013-09-02 21:19:00,75.4,68.1,29.75,NW,304,2.0,4.0,78,0.00,,,0.05,0,Wunderground v.1.15,2013-09-03 01:19:00,
2013-09-02 21:21:00,75.3,68.0,29.75,NNW,329,2.0,4.0,78,0.00,,,0.05,0,Wunderground v.1.15,2013-09-03 01:21:00,
2013-09-02 21:24:00,75.1,67.4,29.75,NW,325,3.0,6.0,77,0.00,,,0.05,0,Wunderground v.1.15,2013-09-03 01:24:00,
2013-09-02 21:26:00,75.1,67.4,29.75,NNW,338,4.0,6.0,77,0.00,,,0.05,0,Wunderground v.1.15,2013-09-03 01:26:00,
2013-09-02 21:27:00,75.1,67.4,29.75,WNW,297,4.0,6.0,77,0.00,,,0.05,0,Wunderground v.1.15,2013-09-03 01:27:00,
2013-09-02 21:28:00,75.1,67.4,29.75,NW,320,4.0,6.0,77,0.00,,,0.05,0,Wunderground v.1.15,2013-09-03 01:28:00,
2013-09-02 21:29:00,75.1,67.4,29.75,WNW,296,4.0,6.0,77,0.00,,,0.05,0,Wunderground v.1.15,2013-09-03 01:29:00,
2013-09-02 21:33:00,75.1,67.0,29.77,WSW,247,5.0,6.0,76,0.00,,,0.05,0,Wunderground v.1.15,2013-09-03 01:33:00,
2013-09-02 21:34:00,75.1,67.0,29.77,West,261,5.0,6.0,76,0.00,,,0.05,0,Wunderground v.1.15,2013-09-03 01:34:00,
2013-09-02 21:35:00,75.2,66.7,29.76,West,267,5.0,6.0,75,0.00,,,0.05,0,Wunderground v.1.15,2013-09-03 01:35:00,
2013-09-02 21:36:00,75.2,66.7,29.76,North,360,5.0,8.0,75,0.00,,,0.05,0,Wunderground v.1.15,2013-09-03 01:36:00,
2013-09-02 21:37:00,75.2,66.7,29.76,NW,313,5.0,8.0,75,0.00,,,0.05,0,Wunderground v.1.15,2013-09-03 01:37:00,
2013-09-02 21:39:00,75.3,66.4,29.77,NW,325,5.0,8.0,74,0.00,,,0.05,0,Wunderground v.1.15,2013-09-03 01:39:00,
2013-09-02 21:40:00,75.3,66.4,29.77,NW,310,5.0,5.0,74,0.00,,,0.05,0,Wunderground v.1.15,2013-09-03 01:40:00,
2013-09-02 21:41:00,75.3,66.4,29.77,WNW,296,4.0,5.0,74,0.00,,,0.05,0,Wunderground v.1.15,2013-09-03 01:41:00,
2013-09-02 21:44:00,75.4,66.9,29.77,NW,322,4.0,5.0,75,0.00,,,0.05,0,Wunderground v.1.15,2013-09-03 01:44:00,
2013-09-02 21:45:00,75.4,66.5,29.77,NW,317,3.0,5.0,74,0.00,,,0.05,0,Wunderground v.1.15,2013-09-03 01:45:00,
2013-09-02 21:46:00,75.3,66.8,29.77,NW,325,3.0,5.0,75,0.00,,,0.05,0,Wunderground v.1.15,2013-09-03 01:46:00,
2013-09-02 21:48:00,75.4,66.5,29.77,WNW,298,2.0,5.0,74,0.00,,,0.05,0,Wunderground v.1.15,2013-09-03 01:48:00,
2013-09-02 21:49:00,75.3,66.8,29.77,WNW,298,2.0,5.0,75,0.00,,,0.05,0,Wunderground v.1.15,2013-09-03 01:49:00,
2013-09-02 21:51:00,75.3,66.8,29.77,WSW,245,1.0,2.0,75,0.00,,,0.05,0,Wunderground v.1.15,2013-09-03 01:51:00,
2013-09-02 21:54:00,75.3,66.8,29.77,WSW,245,1.0,2.0,75,0.00,,,0.05,0,Wunderground v.1.15,2013-09-03 01:54:00,
2013-09-02 22:00:00,75.2,66.7,29.77,NNE,15,2.0,3.0,75,0.00,,,0.05,0,Wunderground v.1.15,2013-09-03 02:00:00,
2013-09-02 22:02:00,75.2,66.7,29.78,West,269,2.0,3.0,75,0.00,,,0.05,0,Wunderground v.1.15,2013-09-03 02:02:00,
2013-09-02 22:06:00,75.1,66.6,29.78,WSW,254,2.0,3.0,75,0.00,,,0.05,0,Wunderground v.1.15,2013-09-03 02:06:00,
2013-09-02 22:07:00,75.0,66.5,29.78,NW,313,2.0,3.0,75,0.00,,,0.05,0,Wunderground v.1.15,2013-09-03 02:07:00,
2013-09-02 22:08:00,75.0,66.5,29.78,NW,313,1.0,3.0,75,0.00,,,0.05,0,Wunderground v.1.15,2013-09-03 02:08:00,
2013-09-02 22:13:00,74.9,66.4,29.78,West,274,1.0,1.0,75,0.00,,,0.05,0,Wunderground v.1.15,2013-09-03 02:13:00,
2013-09-02 22:14:00,74.9,66.4,29.78,West,274,1.0,1.0,75,0.00,,,0.05,0,Wunderground v.1.15,2013-09-03 02:14:00,
2013-09-02 22:16:00,74.9,66.8,29.78,West,274,1.0,1.0,76,0.00,,,0.05,0,Wunderground v.1.15,2013-09-03 02:16:00,
2013-09-02 22:17:00,74.9,66.8,29.78,West,274,1.0,1.0,76,0.00,,,0.05,0,Wunderground v.1.15,2013-09-03 02:17:00,
2013-09-02 22:19:00,74.9,66.8,29.79,WSW,245,1.0,1.0,76,0.00,,,0.05,0,Wunderground v.1.15,2013-09-03 02:19:00,
2013-09-02 22:22:00,74.9,66.8,29.79,WSW,248,1.0,1.0,76,0.00,,,0.05,0,Wunderground v.1.15,2013-09-03 02:22:00,
2013-09-02 22:24:00,74.9,66.8,29.79,WNW,298,1.0,2.0,76,0.00,,,0.05,0,Wunderground v.1.15,2013-09-03 02:24:00,
2013-09-02 22:26:00,74.9,66.8,29.79,West,267,1.0,2.0,76,0.00,,,0.05,0,Wunderground v.1.15,2013-09-03 02:26:00,
2013-09-02 22:28:00,74.8,66.7,29.79,West,268,1.0,2.0,76,0.00,,,0.05,0,Wunderground v.1.15,2013-09-03 02:28:00,
2013-09-02 22:32:00,74.8,67.1,29.79,WNW,292,1.0,1.0,77,0.00,,,0.05,0,Wunderground v.1.15,2013-09-03 02:32:00,
2013-09-02 22:33:00,74.8,66.7,29.79,West,271,1.0,1.0,76,0.00,,,0.05,0,Wunderground v.1.15,2013-09-03 02:33:00,
2013-09-02 22:35:00,74.8,67.1,29.79,WNW,300,1.0,1.0,77,0.00,,,0.05,0,Wunderground v.1.15,2013-09-03 02:35:00,
2013-09-02 22:39:00,74.7,67.0,29.79,NW,326,1.0,1.0,77,0.00,,,0.05,0,Wunderground v.1.15,2013-09-03 02:39:00,
2013-09-02 22:40:00,74.7,67.0,29.79,NW,326,1.0,1.0,77,0.00,,,0.05,0,Wunderground v.1.15,2013-09-03 02:40:00,
2013-09-02 22:41:00,74.7,67.0,29.80,NW,326,1.0,1.0,77,0.00,,,0.05,0,Wunderground v.1.15,2013-09-03 02:41:00,
2013-09-02 22:47:00,74.7,67.0,29.80,West,275,1.0,2.0,77,0.00,,,0.05,0,Wunderground v.1.15,2013-09-03 02:47:00,
2013-09-02 22:48:00,74.7,67.0,29.80,WNW,296,1.0,2.0,77,0.00,,,0.05,0,Wunderground v.1.15,2013-09-03 02:48:00,
2013-09-02 22:50:00,74.7,67.0,29.81,WSW,257,1.0,1.0,77,0.00,,,0.05,0,Wunderground v.1.15,2013-09-03 02:50:00,
2013-09-02 22:54:00,74.6,66.9,29.81,ESE,119,1.0,4.0,77,0.00,,,0.05,0,Wunderground v.1.15,2013-09-03 02:54:00,
2013-09-02 22:56:00,74.6,66.9,29.81,SE,132,1.0,4.0,77,0.00,,,0.05,0,Wunderground v.1.15,2013-09-03 02:56:00,
2013-09-02 22:57:00,74.6,66.9,29.81,West,275,1.0,4.0,77,0.00,,,0.05,0,Wunderground v.1.15,2013-09-03 02:57:00,
2013-09-02 22:58:00,74.6,66.9,29.81,WNW,287,1.0,4.0,77,0.00,,,0.05,0,Wunderground v.1.15,2013-09-03 02:58:00,
2013-09-02 23:00:00,74.6,66.9,29.81,West,281,2.0,2.0,77,0.00,,,0.05,0,Wunderground v.1.15,2013-09-03 03:00:00,
2013-09-02 23:03:00,74.5,66.8,29.81,WNW,292,2.0,2.0,77,0.00,,,0.05,0,Wunderground v.1.15,2013-09-03 03:03:00,
2013-09-02 23:06:00,74.5,66.8,29.81,WNW,292,1.0,2.0,77,0.00,,,0.05,0,Wunderground v.1.15,2013-09-03 03:06:00,
2013-09-02 23:09:00,74.4,66.7,29.81,West,277,1.0,2.0,77,0.00,,,0.05,0,Wunderground v.1.15,2013-09-03 03:09:00,
2013-09-02 23:10:00,74.4,66.7,29.81,SSE,159,1.0,1.0,77,0.00,,,0.05,0,Wunderground v.1.15,2013-09-03 03:10:00,
2013-09-02 23:12:00,74.4,66.7,29.80,WNW,283,1.0,1.0,77,0.00,,,0.05,0,Wunderground v.1.15,2013-09-03 03:12:00,
2013-09-02 23:13:00,74.4,66.7,29.80,WNW,283,1.0,1.0,77,0.00,,,0.05,0,Wunderground v.1.15,2013-09-03 03:13:00,
2013-09-02 23:16:00,74.4,66.7,29.80,WNW,282,1.0,1.0,77,0.00,,,0.05,0,Wunderground v.1.15,2013-09-03 03:16:00,
2013-09-02 23:18:00,74.3,66.6,29.80,NW,306,1.0,2.0,77,0.00,,,0.05,0,Wunderground v.1.15,2013-09-03 03:18:00,
2013-09-02 23:19:00,74.3,66.6,29.79,NW,311,1.0,2.0,77,0.00,,,0.05,0,Wunderground v.1.15,2013-09-03 03:19:00,
2013-09-02 23:20:00,74.3,66.6,29.79,NNW,338,1.0,2.0,77,0.00,,,0.05,0,Wunderground v.1.15,2013-09-03 03:20:00,
2013-09-02 23:23:00,74.2,66.5,29.79,North,350,1.0,3.0,77,0.00,,,0.05,0,Wunderground v.1.15,2013-09-03 03:23:00,
2013-09-02 23:26:00,74.1,66.4,29.78,North,350,1.0,3.0,77,0.00,,,0.05,0,Wunderground v.1.15,2013-09-03 03:26:00,
2013-09-02 23:27:00,74.1,66.8,29.79,North,350,1.0,3.0,78,0.00,,,0.05,0,Wunderground v.1.15,2013-09-03 03:27:00,
2013-09-02 23:29:00,74.1,66.8,29.79,North,350,1.0,3.0,78,0.00,,,0.05,0,Wunderground v.1.15,2013-09-03 03:29:00,
2013-09-02 23:33:00,74.0,66.7,29.79,North,350,0.0,1.0,78,0.00,,,0.05,0,Wunderground v.1.15,2013-09-03 03:33:00,
2013-09-02 23:34:00,74.0,66.7,29.79,North,350,0.0,1.0,78,0.00,,,0.05,0,Wunderground v.1.15,2013-09-03 03:34:00,
2013-09-02 23:35:00,74.0,66.7,29.79,SE,130,0.0,1.0,78,0.00,,,0.05,0,Wunderground v.1.15,2013-09-03 03:35:00,
2013-09-02 23:39:00,74.0,66.7,29.79,West,265,1.0,1.0,78,0.00,,,0.05,0,Wunderground v.1.15,2013-09-03 03:39:00,
2013-09-02 23:40:00,74.0,66.7,29.79,West,265,1.0,1.0,78,0.00,,,0.05,0,Wunderground v.1.15,2013-09-03 03:40:00,
2013-09-02 23:42:00,74.0,66.3,29.79,West,265,1.0,2.0,77,0.00,,,0.05,0,Wunderground v.1.15,2013-09-03 03:42:00,
2013-09-02 23:46:00,74.0,66.3,29.79,WNW,291,1.0,2.0,77,0.00,,,0.05,0,Wunderground v.1.15,2013-09-03 03:46:00,
2013-09-02 23:48:00,74.0,66.3,29.79,WNW,290,1.0,2.0,77,0.00,,,0.05,0,Wunderground v.1.15,2013-09-03 03:48:00,
2013-09-02 23:49:00,74.0,66.3,29.79,WNW,292,1.0,2.0,77,0.00,,,0.05,0,Wunderground v.1.15,2013-09-03 03:49:00,
2013-09-02 23:52:00,73.9,66.2,29.79,NW,311,1.0,1.0,77,0.00,,,0.05,0,Wunderground v.1.15,2013-09-03 03:52:00,
2013-09-02 23:53:00,73.9,66.2,29.79,NW,311,1.0,1.0,77,0.00,,,0.05,0,Wunderground v.1.15,2013-09-03 03:53:00,
2013-09-02 23:55:00,73.8,66.1,29.79,NW,311,1.0,2.0,77,0.00,,,0.05,0,Wunderground v.1.15,2013-09-03 03:55:00,